PORTS® Data Listing: 9410692 Los Angeles Pier S, CA

CO-OPS RAW PORTS DATA

************************      PRELIMINARY DATA      ************************** 

     THIS RAW DATA HAS NOT BEEN SUBJECT TO THE NATIONAL OCEAN SERVICE'S        
     QUALITY CONTROL OR QUALITY ASSURANCE PROCEDURES AND DOES NOT MEET         
     THE CRITERIA AND STANDARDS OF OFFICIAL NATIONAL OCEAN SERVICE             
     DATA.  IT IS RELEASED FOR LIMITED PUBLIC USE AS PRELIMINARY DATA TO       
     BE USED ONLY WITH APPROPRIATE CAUTION.                                    

************************      PRELIMINARY DATA      ************************** 


       CD   -   Calendar date
       T    -   Time
       TZ   -   Timezone
       PW   -   Predicted water level (feet above MLLW)
       OW   -   Observed water level (feet above MLLW)
       WS   -   Wind speed (knots)
       WD   -   Wind direction (degrees true)
       WG   -   Wind gust (knots)
       AT   -   Air temperature (degrees farenheit)
       WT   -   Water temperature (degrees farenheit)
       AP   -   Air pressure (millibars)
       SA   -   Salinty (PSU - Practical Salinity Units)
       SG   -   Specific gravity
       RH   -   Relative humidity
       AG   -   Air gap (feet)
       VI   -   Visibility (nautical miles)

       ** NOTE **
       A variable that has its data fields filled with "9"s, indicates that
       data was not collected for that sample period.
       **********


STATION NAME: Pier S (9410692)
****************************************************************************************************
    CD       T    TZ    PW     OW    WS   WD   WG    AT    WT    AP    SA    SG     RH    AG   VI
****************************************************************************************************
2019/12/11 02:00 PST  -99.99 -99.99    1  359    2 -99.9 -99.9 -999.9 -9.9 -9.999 -99.9 -99.99 -9.99
2019/12/11 02:06 PST  -99.99 -99.99    0  332    1 -99.9 -99.9 -999.9 -9.9 -9.999 -99.9 -99.99 -9.99
2019/12/11 02:12 PST  -99.99 -99.99    0  303    1 -99.9 -99.9 -999.9 -9.9 -9.999 -99.9 -99.99 -9.99
2019/12/11 02:18 PST  -99.99 -99.99    1   82    2 -99.9 -99.9 -999.9 -9.9 -9.999 -99.9 -99.99 -9.99
2019/12/11 02:24 PST  -99.99 -99.99    1   87    1 -99.9 -99.9 -999.9 -9.9 -9.999 -99.9 -99.99 -9.99
2019/12/11 02:30 PST  -99.99 -99.99    1   46    2 -99.9 -99.9 -999.9 -9.9 -9.999 -99.9 -99.99 -9.99
2019/12/11 02:36 PST  -99.99 -99.99    1   62    2 -99.9 -99.9 -999.9 -9.9 -9.999 -99.9 -99.99 -9.99
2019/12/11 02:42 PST  -99.99 -99.99    1   56    2 -99.9 -99.9 -999.9 -9.9 -9.999 -99.9 -99.99 -9.99
2019/12/11 02:48 PST  -99.99 -99.99    0   17    1 -99.9 -99.9 -999.9 -9.9 -9.999 -99.9 -99.99 -9.99
2019/12/11 02:54 PST  -99.99 -99.99    1   48    1 -99.9 -99.9 -999.9 -9.9 -9.999 -99.9 -99.99 -9.99
2019/12/11 03:00 PST  -99.99 -99.99    1   24    2 -99.9 -99.9 -999.9 -9.9 -9.999 -99.9 -99.99 -9.99
2019/12/11 03:06 PST  -99.99 -99.99    1   48    1 -99.9 -99.9 -999.9 -9.9 -9.999 -99.9 -99.99 -9.99
2019/12/11 03:12 PST  -99.99 -99.99    1   51    2 -99.9 -99.9 -999.9 -9.9 -9.999 -99.9 -99.99 -9.99
2019/12/11 03:18 PST  -99.99 -99.99    2   26    3 -99.9 -99.9 -999.9 -9.9 -9.999 -99.9 -99.99 -9.99
2019/12/11 03:24 PST  -99.99 -99.99    4   21    4 -99.9 -99.9 -999.9 -9.9 -9.999 -99.9 -99.99 -9.99
2019/12/11 03:30 PST  -99.99 -99.99    4   26    5 -99.9 -99.9 -999.9 -9.9 -9.999 -99.9 -99.99 -9.99
2019/12/11 03:36 PST  -99.99 -99.99    2   39    5 -99.9 -99.9 -999.9 -9.9 -9.999 -99.9 -99.99 -9.99
2019/12/11 03:42 PST  -99.99 -99.99    4   16    5 -99.9 -99.9 -999.9 -9.9 -9.999 -99.9 -99.99 -9.99
2019/12/11 03:48 PST  -99.99 -99.99    4   16    5 -99.9 -99.9 -999.9 -9.9 -9.999 -99.9 -99.99 -9.99
2019/12/11 03:54 PST  -99.99 -99.99    4   10    6 -99.9 -99.9 -999.9 -9.9 -9.999 -99.9 -99.99 -9.99
2019/12/11 04:00 PST  -99.99 -99.99    5    9    6 -99.9 -99.9 -999.9 -9.9 -9.999 -99.9 -99.99 -9.99
2019/12/11 04:06 PST  -99.99 -99.99    2   20    5 -99.9 -99.9 -999.9 -9.9 -9.999 -99.9 -99.99 -9.99
2019/12/11 04:12 PST  -99.99 -99.99    2   36    4 -99.9 -99.9 -999.9 -9.9 -9.999 -99.9 -99.99 -9.99
2019/12/11 04:18 PST  -99.99 -99.99    2   39    3 -99.9 -99.9 -999.9 -9.9 -9.999 -99.9 -99.99 -9.99
2019/12/11 04:24 PST  -99.99 -99.99    0   39    3 -99.9 -99.9 -999.9 -9.9 -9.999 -99.9 -99.99 -9.99
2019/12/11 04:30 PST  -99.99 -99.99    3   39    3 -99.9 -99.9 -999.9 -9.9 -9.999 -99.9 -99.99 -9.99
2019/12/11 04:36 PST  -99.99 -99.99    1   51    3 -99.9 -99.9 -999.9 -9.9 -9.999 -99.9 -99.99 -9.99
2019/12/11 04:42 PST  -99.99 -99.99    1   68    2 -99.9 -99.9 -999.9 -9.9 -9.999 -99.9 -99.99 -9.99
2019/12/11 04:48 PST  -99.99 -99.99    1   64    1 -99.9 -99.9 -999.9 -9.9 -9.999 -99.9 -99.99 -9.99
2019/12/11 04:54 PST  -99.99 -99.99    0   57    2 -99.9 -99.9 -999.9 -9.9 -9.999 -99.9 -99.99 -9.99
2019/12/11 05:00 PST  -99.99 -99.99    2   31    2 -99.9 -99.9 -999.9 -9.9 -9.999 -99.9 -99.99 -9.99
2019/12/11 05:06 PST  -99.99 -99.99    3   23    4 -99.9 -99.9 -999.9 -9.9 -9.999 -99.9 -99.99 -9.99
2019/12/11 05:12 PST  -99.99 -99.99    1   51    4 -99.9 -99.9 -999.9 -9.9 -9.999 -99.9 -99.99 -9.99
2019/12/11 05:18 PST  -99.99 -99.99    3   45    4 -99.9 -99.9 -999.9 -9.9 -9.999 -99.9 -99.99 -9.99
2019/12/11 05:24 PST  -99.99 -99.99    2   39    4 -99.9 -99.9 -999.9 -9.9 -9.999 -99.9 -99.99 -9.99
2019/12/11 05:30 PST  -99.99 -99.99    3   47    5 -99.9 -99.9 -999.9 -9.9 -9.999 -99.9 -99.99 -9.99
2019/12/11 05:36 PST  -99.99 -99.99    2   46    5 -99.9 -99.9 -999.9 -9.9 -9.999 -99.9 -99.99 -9.99
2019/12/11 05:42 PST  -99.99 -99.99    2   42    4 -99.9 -99.9 -999.9 -9.9 -9.999 -99.9 -99.99 -9.99
2019/12/11 05:48 PST  -99.99 -99.99    2   47    3 -99.9 -99.9 -999.9 -9.9 -9.999 -99.9 -99.99 -9.99
2019/12/11 05:54 PST  -99.99 -99.99    2   50    3 -99.9 -99.9 -999.9 -9.9 -9.999 -99.9 -99.99 -9.99
2019/12/11 06:00 PST  -99.99 -99.99    2   45    3 -99.9 -99.9 -999.9 -9.9 -9.999 -99.9 -99.99 -9.99
2019/12/11 06:06 PST  -99.99 -99.99    1   48    3 -99.9 -99.9 -999.9 -9.9 -9.999 -99.9 -99.99 -9.99
2019/12/11 06:12 PST  -99.99 -99.99    2   30    2 -99.9 -99.9 -999.9 -9.9 -9.999 -99.9 -99.99 -9.99
2019/12/11 06:18 PST  -99.99 -99.99    4   18    4 -99.9 -99.9 -999.9 -9.9 -9.999 -99.9 -99.99 -9.99
2019/12/11 06:24 PST  -99.99 -99.99    2   35    4 -99.9 -99.9 -999.9 -9.9 -9.999 -99.9 -99.99 -9.99
2019/12/11 06:30 PST  -99.99 -99.99    2   52    3 -99.9 -99.9 -999.9 -9.9 -9.999 -99.9 -99.99 -9.99
2019/12/11 06:36 PST  -99.99 -99.99    2   65    2 -99.9 -99.9 -999.9 -9.9 -9.999 -99.9 -99.99 -9.99
2019/12/11 06:42 PST  -99.99 -99.99    2   53    3 -99.9 -99.9 -999.9 -9.9 -9.999 -99.9 -99.99 -9.99
2019/12/11 06:48 PST  -99.99 -99.99    1   32    4 -99.9 -99.9 -999.9 -9.9 -9.999 -99.9 -99.99 -9.99
2019/12/11 06:54 PST  -99.99 -99.99    1   31    2 -99.9 -99.9 -999.9 -9.9 -9.999 -99.9 -99.99 -9.99
2019/12/11 07:00 PST  -99.99 -99.99    1   43    2 -99.9 -99.9 -999.9 -9.9 -9.999 -99.9 -99.99 -9.99
2019/12/11 07:06 PST  -99.99 -99.99    1    6    2 -99.9 -99.9 -999.9 -9.9 -9.999 -99.9 -99.99 -9.99
2019/12/11 07:12 PST  -99.99 -99.99    3    1    3 -99.9 -99.9 -999.9 -9.9 -9.999 -99.9 -99.99 -9.99
2019/12/11 07:18 PST  -99.99 -99.99    2    4    3 -99.9 -99.9 -999.9 -9.9 -9.999 -99.9 -99.99 -9.99
2019/12/11 07:24 PST  -99.99 -99.99    3   16    3 -99.9 -99.9 -999.9 -9.9 -9.999 -99.9 -99.99 -9.99
2019/12/11 07:30 PST  -99.99 -99.99    1  354    2 -99.9 -99.9 -999.9 -9.9 -9.999 -99.9 -99.99 -9.99
2019/12/11 07:36 PST  -99.99 -99.99    2  319    2 -99.9 -99.9 -999.9 -9.9 -9.999 -99.9 -99.99 -9.99
2019/12/11 07:42 PST  -99.99 -99.99    1   20    2 -99.9 -99.9 -999.9 -9.9 -9.999 -99.9 -99.99 -9.99
2019/12/11 07:48 PST  -99.99 -99.99    2   16    3 -99.9 -99.9 -999.9 -9.9 -9.999 -99.9 -99.99 -9.99
2019/12/11 07:54 PST  -99.99 -99.99    2    7    3 -99.9 -99.9 -999.9 -9.9 -9.999 -99.9 -99.99 -9.99
2019/12/11 08:00 PST  -99.99 -99.99    2   17    2 -99.9 -99.9 -999.9 -9.9 -9.999 -99.9 -99.99 -9.99
2019/12/11 08:06 PST  -99.99 -99.99    2   27    3 -99.9 -99.9 -999.9 -9.9 -9.999 -99.9 -99.99 -9.99
2019/12/11 08:12 PST  -99.99 -99.99    0   33    2 -99.9 -99.9 -999.9 -9.9 -9.999 -99.9 -99.99 -9.99
2019/12/11 08:18 PST  -99.99 -99.99    0   26    1 -99.9 -99.9 -999.9 -9.9 -9.999 -99.9 -99.99 -9.99
2019/12/11 08:24 PST  -99.99 -99.99    0   45    1 -99.9 -99.9 -999.9 -9.9 -9.999 -99.9 -99.99 -9.99
2019/12/11 08:30 PST  -99.99 -99.99    1   21    2 -99.9 -99.9 -999.9 -9.9 -9.999 -99.9 -99.99 -9.99
2019/12/11 08:36 PST  -99.99 -99.99    2   20    3 -99.9 -99.9 -999.9 -9.9 -9.999 -99.9 -99.99 -9.99
2019/12/11 08:42 PST  -99.99 -99.99    3    6    4 -99.9 -99.9 -999.9 -9.9 -9.999 -99.9 -99.99 -9.99
2019/12/11 08:48 PST  -99.99 -99.99    3  353    3 -99.9 -99.9 -999.9 -9.9 -9.999 -99.9 -99.99 -9.99
2019/12/11 08:54 PST  -99.99 -99.99    0   15    3 -99.9 -99.9 -999.9 -9.9 -9.999 -99.9 -99.99 -9.99
2019/12/11 09:00 PST  -99.99 -99.99    1   39    2 -99.9 -99.9 -999.9 -9.9 -9.999 -99.9 -99.99 -9.99
2019/12/11 09:06 PST  -99.99 -99.99    0   17    1 -99.9 -99.9 -999.9 -9.9 -9.999 -99.9 -99.99 -9.99
2019/12/11 09:12 PST  -99.99 -99.99    1   82    2 -99.9 -99.9 -999.9 -9.9 -9.999 -99.9 -99.99 -9.99
2019/12/11 09:18 PST  -99.99 -99.99    2   30    3 -99.9 -99.9 -999.9 -9.9 -9.999 -99.9 -99.99 -9.99
2019/12/11 09:24 PST  -99.99 -99.99    1   41    3 -99.9 -99.9 -999.9 -9.9 -9.999 -99.9 -99.99 -9.99
2019/12/11 09:30 PST  -99.99 -99.99    1   53    2 -99.9 -99.9 -999.9 -9.9 -9.999 -99.9 -99.99 -9.99
2019/12/11 09:36 PST  -99.99 -99.99    0  153    1 -99.9 -99.9 -999.9 -9.9 -9.999 -99.9 -99.99 -9.99
2019/12/11 09:42 PST  -99.99 -99.99    1  120    2 -99.9 -99.9 -999.9 -9.9 -9.999 -99.9 -99.99 -9.99
2019/12/11 09:48 PST  -99.99 -99.99    3  110    3 -99.9 -99.9 -999.9 -9.9 -9.999 -99.9 -99.99 -9.99
2019/12/11 09:54 PST  -99.99 -99.99    2  114    3 -99.9 -99.9 -999.9 -9.9 -9.999 -99.9 -99.99 -9.99
2019/12/11 10:00 PST  -99.99 -99.99    1  128    3 -99.9 -99.9 -999.9 -9.9 -9.999 -99.9 -99.99 -9.99
2019/12/11 10:06 PST  -99.99 -99.99    1  154    3 -99.9 -99.9 -999.9 -9.9 -9.999 -99.9 -99.99 -9.99
2019/12/11 10:12 PST  -99.99 -99.99    1  122    2 -99.9 -99.9 -999.9 -9.9 -9.999 -99.9 -99.99 -9.99
2019/12/11 10:18 PST  -99.99 -99.99    2  185    3 -99.9 -99.9 -999.9 -9.9 -9.999 -99.9 -99.99 -9.99
2019/12/11 10:24 PST  -99.99 -99.99    2  126    3 -99.9 -99.9 -999.9 -9.9 -9.999 -99.9 -99.99 -9.99
2019/12/11 10:30 PST  -99.99 -99.99    3  127    4 -99.9 -99.9 -999.9 -9.9 -9.999 -99.9 -99.99 -9.99
2019/12/11 10:36 PST  -99.99 -99.99    3  138    4 -99.9 -99.9 -999.9 -9.9 -9.999 -99.9 -99.99 -9.99
2019/12/11 10:42 PST  -99.99 -99.99    3  137    4 -99.9 -99.9 -999.9 -9.9 -9.999 -99.9 -99.99 -9.99
2019/12/11 10:48 PST  -99.99 -99.99    4  151    4 -99.9 -99.9 -999.9 -9.9 -9.999 -99.9 -99.99 -9.99
2019/12/11 10:54 PST  -99.99 -99.99    2  149    4 -99.9 -99.9 -999.9 -9.9 -9.999 -99.9 -99.99 -9.99
2019/12/11 11:00 PST  -99.99 -99.99    2  137    3 -99.9 -99.9 -999.9 -9.9 -9.999 -99.9 -99.99 -9.99
2019/12/11 11:06 PST  -99.99 -99.99    3  157    4 -99.9 -99.9 -999.9 -9.9 -9.999 -99.9 -99.99 -9.99
2019/12/11 11:12 PST  -99.99 -99.99    4  188    6 -99.9 -99.9 -999.9 -9.9 -9.999 -99.9 -99.99 -9.99
2019/12/11 11:18 PST  -99.99 -99.99    4  172    5 -99.9 -99.9 -999.9 -9.9 -9.999 -99.9 -99.99 -9.99
2019/12/11 11:24 PST  -99.99 -99.99    4  169    5 -99.9 -99.9 -999.9 -9.9 -9.999 -99.9 -99.99 -9.99
2019/12/11 11:30 PST  -99.99 -99.99    4  182    5 -99.9 -99.9 -999.9 -9.9 -9.999 -99.9 -99.99 -9.99
2019/12/11 11:36 PST  -99.99 -99.99    4  184    5 -99.9 -99.9 -999.9 -9.9 -9.999 -99.9 -99.99 -9.99
2019/12/11 11:42 PST  -99.99 -99.99    4  164    6 -99.9 -99.9 -999.9 -9.9 -9.999 -99.9 -99.99 -9.99
2019/12/11 11:48 PST  -99.99 -99.99    4  186    6 -99.9 -99.9 -999.9 -9.9 -9.999 -99.9 -99.99 -9.99
2019/12/11 11:54 PST  -99.99 -99.99    3  189    5 -99.9 -99.9 -999.9 -9.9 -9.999 -99.9 -99.99 -9.99
2019/12/11 12:00 PST  -99.99 -99.99    4  193    6 -99.9 -99.9 -999.9 -9.9 -9.999 -99.9 -99.99 -9.99
2019/12/11 12:06 PST  -99.99 -99.99    3  193    5 -99.9 -99.9 -999.9 -9.9 -9.999 -99.9 -99.99 -9.99
2019/12/11 12:12 PST  -99.99 -99.99    4  195    4 -99.9 -99.9 -999.9 -9.9 -9.999 -99.9 -99.99 -9.99
2019/12/11 12:18 PST  -99.99 -99.99    4  192    5 -99.9 -99.9 -999.9 -9.9 -9.999 -99.9 -99.99 -9.99
2019/12/11 12:24 PST  -99.99 -99.99    5  170    7 -99.9 -99.9 -999.9 -9.9 -9.999 -99.9 -99.99 -9.99
2019/12/11 12:30 PST  -99.99 -99.99    6  178    7 -99.9 -99.9 -999.9 -9.9 -9.999 -99.9 -99.99 -9.99
2019/12/11 12:36 PST  -99.99 -99.99    6  171    7 -99.9 -99.9 -999.9 -9.9 -9.999 -99.9 -99.99 -9.99
2019/12/11 12:42 PST  -99.99 -99.99    6  168    7 -99.9 -99.9 -999.9 -9.9 -9.999 -99.9 -99.99 -9.99
2019/12/11 12:48 PST  -99.99 -99.99    4  164    7 -99.9 -99.9 -999.9 -9.9 -9.999 -99.9 -99.99 -9.99
2019/12/11 12:54 PST  -99.99 -99.99    4  178    6 -99.9 -99.9 -999.9 -9.9 -9.999 -99.9 -99.99 -9.99
2019/12/11 13:00 PST  -99.99 -99.99    4  150    6 -99.9 -99.9 -999.9 -9.9 -9.999 -99.9 -99.99 -9.99
2019/12/11 13:06 PST  -99.99 -99.99    4  155    6 -99.9 -99.9 -999.9 -9.9 -9.999 -99.9 -99.99 -9.99
2019/12/11 13:12 PST  -99.99 -99.99    5  158    6 -99.9 -99.9 -999.9 -9.9 -9.999 -99.9 -99.99 -9.99
2019/12/11 13:18 PST  -99.99 -99.99    5  161    7 -99.9 -99.9 -999.9 -9.9 -9.999 -99.9 -99.99 -9.99
2019/12/11 13:24 PST  -99.99 -99.99    5  146    7 -99.9 -99.9 -999.9 -9.9 -9.999 -99.9 -99.99 -9.99
2019/12/11 13:30 PST  -99.99 -99.99    6  150    7 -99.9 -99.9 -999.9 -9.9 -9.999 -99.9 -99.99 -9.99
2019/12/11 13:36 PST  -99.99 -99.99    5  139    7 -99.9 -99.9 -999.9 -9.9 -9.999 -99.9 -99.99 -9.99
2019/12/11 13:42 PST  -99.99 -99.99    4  153    6 -99.9 -99.9 -999.9 -9.9 -9.999 -99.9 -99.99 -9.99
2019/12/11 13:48 PST  -99.99 -99.99    5  151    7 -99.9 -99.9 -999.9 -9.9 -9.999 -99.9 -99.99 -9.99
2019/12/11 13:54 PST  -99.99 -99.99    4  137    6 -99.9 -99.9 -999.9 -9.9 -9.999 -99.9 -99.99 -9.99
2019/12/11 14:00 PST  -99.99 -99.99    5  137    6 -99.9 -99.9 -999.9 -9.9 -9.999 -99.9 -99.99 -9.99
2019/12/11 14:06 PST  -99.99 -99.99    2  143    4 -99.9 -99.9 -999.9 -9.9 -9.999 -99.9 -99.99 -9.99
2019/12/11 14:12 PST  -99.99 -99.99    3  157    5 -99.9 -99.9 -999.9 -9.9 -9.999 -99.9 -99.99 -9.99
2019/12/11 14:18 PST  -99.99 -99.99    2  205    4 -99.9 -99.9 -999.9 -9.9 -9.999 -99.9 -99.99 -9.99
2019/12/11 14:24 PST  -99.99 -99.99    3  185    4 -99.9 -99.9 -999.9 -9.9 -9.999 -99.9 -99.99 -9.99
2019/12/11 14:30 PST  -99.99 -99.99    3  189    4 -99.9 -99.9 -999.9 -9.9 -9.999 -99.9 -99.99 -9.99
2019/12/11 14:36 PST  -99.99 -99.99    1  191    4 -99.9 -99.9 -999.9 -9.9 -9.999 -99.9 -99.99 -9.99
2019/12/11 14:42 PST  -99.99 -99.99    4  163    5 -99.9 -99.9 -999.9 -9.9 -9.999 -99.9 -99.99 -9.99
2019/12/11 14:48 PST  -99.99 -99.99    5  155    6 -99.9 -99.9 -999.9 -9.9 -9.999 -99.9 -99.99 -9.99
2019/12/11 14:54 PST  -99.99 -99.99    5  171    6 -99.9 -99.9 -999.9 -9.9 -9.999 -99.9 -99.99 -9.99
2019/12/11 15:00 PST  -99.99 -99.99    4  153    6 -99.9 -99.9 -999.9 -9.9 -9.999 -99.9 -99.99 -9.99
2019/12/11 15:06 PST  -99.99 -99.99    6  172    7 -99.9 -99.9 -999.9 -9.9 -9.999 -99.9 -99.99 -9.99
2019/12/11 15:12 PST  -99.99 -99.99    4  173    5 -99.9 -99.9 -999.9 -9.9 -9.999 -99.9 -99.99 -9.99
2019/12/11 15:18 PST  -99.99 -99.99    3  211    5 -99.9 -99.9 -999.9 -9.9 -9.999 -99.9 -99.99 -9.99
2019/12/11 15:24 PST  -99.99 -99.99    6  336    8 -99.9 -99.9 -999.9 -9.9 -9.999 -99.9 -99.99 -9.99
2019/12/11 15:30 PST  -99.99 -99.99    4  307    7 -99.9 -99.9 -999.9 -9.9 -9.999 -99.9 -99.99 -9.99
2019/12/11 15:36 PST  -99.99 -99.99    5  308    7 -99.9 -99.9 -999.9 -9.9 -9.999 -99.9 -99.99 -9.99
2019/12/11 15:42 PST  -99.99 -99.99    7  304    9 -99.9 -99.9 -999.9 -9.9 -9.999 -99.9 -99.99 -9.99
2019/12/11 15:48 PST  -99.99 -99.99    8  302   12 -99.9 -99.9 -999.9 -9.9 -9.999 -99.9 -99.99 -9.99
2019/12/11 15:54 PST  -99.99 -99.99    7  299   10 -99.9 -99.9 -999.9 -9.9 -9.999 -99.9 -99.99 -9.99
2019/12/11 16:00 PST  -99.99 -99.99    7  299   10 -99.9 -99.9 -999.9 -9.9 -9.999 -99.9 -99.99 -9.99
2019/12/11 16:06 PST  -99.99 -99.99    5  297    9 -99.9 -99.9 -999.9 -9.9 -9.999 -99.9 -99.99 -9.99
2019/12/11 16:12 PST  -99.99 -99.99    5  312    7 -99.9 -99.9 -999.9 -9.9 -9.999 -99.9 -99.99 -9.99
2019/12/11 16:18 PST  -99.99 -99.99    7  307    9 -99.9 -99.9 -999.9 -9.9 -9.999 -99.9 -99.99 -9.99
2019/12/11 16:24 PST  -99.99 -99.99    6  300   10 -99.9 -99.9 -999.9 -9.9 -9.999 -99.9 -99.99 -9.99
2019/12/11 16:30 PST  -99.99 -99.99    8  298   10 -99.9 -99.9 -999.9 -9.9 -9.999 -99.9 -99.99 -9.99
2019/12/11 16:36 PST  -99.99 -99.99    7  290    9 -99.9 -99.9 -999.9 -9.9 -9.999 -99.9 -99.99 -9.99
2019/12/11 16:42 PST  -99.99 -99.99    9  295   11 -99.9 -99.9 -999.9 -9.9 -9.999 -99.9 -99.99 -9.99
2019/12/11 16:48 PST  -99.99 -99.99   10  299   14 -99.9 -99.9 -999.9 -9.9 -9.999 -99.9 -99.99 -9.99
2019/12/11 16:54 PST  -99.99 -99.99    9  297   11 -99.9 -99.9 -999.9 -9.9 -9.999 -99.9 -99.99 -9.99
2019/12/11 17:00 PST  -99.99 -99.99    8  297   12 -99.9 -99.9 -999.9 -9.9 -9.999 -99.9 -99.99 -9.99
2019/12/11 17:06 PST  -99.99 -99.99    9  293   12 -99.9 -99.9 -999.9 -9.9 -9.999 -99.9 -99.99 -9.99
2019/12/11 17:12 PST  -99.99 -99.99    9  295   11 -99.9 -99.9 -999.9 -9.9 -9.999 -99.9 -99.99 -9.99
2019/12/11 17:18 PST  -99.99 -99.99    9  292   11 -99.9 -99.9 -999.9 -9.9 -9.999 -99.9 -99.99 -9.99
2019/12/11 17:24 PST  -99.99 -99.99    8  289   11 -99.9 -99.9 -999.9 -9.9 -9.999 -99.9 -99.99 -9.99
2019/12/11 17:30 PST  -99.99 -99.99    7  298    8 -99.9 -99.9 -999.9 -9.9 -9.999 -99.9 -99.99 -9.99
2019/12/11 17:36 PST  -99.99 -99.99    7  308    9 -99.9 -99.9 -999.9 -9.9 -9.999 -99.9 -99.99 -9.99
2019/12/11 17:42 PST  -99.99 -99.99    4  331    7 -99.9 -99.9 -999.9 -9.9 -9.999 -99.9 -99.99 -9.99
2019/12/11 17:48 PST  -99.99 -99.99    5  309    7 -99.9 -99.9 -999.9 -9.9 -9.999 -99.9 -99.99 -9.99
2019/12/11 17:54 PST  -99.99 -99.99    5  298    7 -99.9 -99.9 -999.9 -9.9 -9.999 -99.9 -99.99 -9.99
2019/12/11 18:00 PST  -99.99 -99.99    3  308    6 -99.9 -99.9 -999.9 -9.9 -9.999 -99.9 -99.99 -9.99
2019/12/11 18:06 PST  -99.99 -99.99    1   39    4 -99.9 -99.9 -999.9 -9.9 -9.999 -99.9 -99.99 -9.99
2019/12/11 18:12 PST  -99.99 -99.99    2   78    3 -99.9 -99.9 -999.9 -9.9 -9.999 -99.9 -99.99 -9.99
2019/12/11 18:18 PST  -99.99 -99.99    1   65    2 -99.9 -99.9 -999.9 -9.9 -9.999 -99.9 -99.99 -9.99
2019/12/11 18:24 PST  -99.99 -99.99    0    0    1 -99.9 -99.9 -999.9 -9.9 -9.999 -99.9 -99.99 -9.99
2019/12/11 18:30 PST  -99.99 -99.99    1  214    2 -99.9 -99.9 -999.9 -9.9 -9.999 -99.9 -99.99 -9.99
2019/12/11 18:36 PST  -99.99 -99.99    3  227    3 -99.9 -99.9 -999.9 -9.9 -9.999 -99.9 -99.99 -9.99
2019/12/11 18:42 PST  -99.99 -99.99    2  220    3 -99.9 -99.9 -999.9 -9.9 -9.999 -99.9 -99.99 -9.99
2019/12/11 18:48 PST  -99.99 -99.99    3  227    3 -99.9 -99.9 -999.9 -9.9 -9.999 -99.9 -99.99 -9.99
2019/12/11 18:54 PST  -99.99 -99.99    3  214    3 -99.9 -99.9 -999.9 -9.9 -9.999 -99.9 -99.99 -9.99
2019/12/11 19:00 PST  -99.99 -99.99    1  175    2 -99.9 -99.9 -999.9 -9.9 -9.999 -99.9 -99.99 -9.99
2019/12/11 19:06 PST  -99.99 -99.99    2  194    2 -99.9 -99.9 -999.9 -9.9 -9.999 -99.9 -99.99 -9.99
2019/12/11 19:12 PST  -99.99 -99.99    0  205    2 -99.9 -99.9 -999.9 -9.9 -9.999 -99.9 -99.99 -9.99
2019/12/11 19:18 PST  -99.99 -99.99    1  122    2 -99.9 -99.9 -999.9 -9.9 -9.999 -99.9 -99.99 -9.99
2019/12/11 19:24 PST  -99.99 -99.99    2  124    2 -99.9 -99.9 -999.9 -9.9 -9.999 -99.9 -99.99 -9.99
2019/12/11 19:30 PST  -99.99 -99.99    2  153    3 -99.9 -99.9 -999.9 -9.9 -9.999 -99.9 -99.99 -9.99
2019/12/11 19:36 PST  -99.99 -99.99    3  106    3 -99.9 -99.9 -999.9 -9.9 -9.999 -99.9 -99.99 -9.99
2019/12/11 19:42 PST  -99.99 -99.99    2  119    3 -99.9 -99.9 -999.9 -9.9 -9.999 -99.9 -99.99 -9.99
2019/12/11 19:48 PST  -99.99 -99.99    2   86    3 -99.9 -99.9 -999.9 -9.9 -9.999 -99.9 -99.99 -9.99
2019/12/11 19:54 PST  -99.99 -99.99    1   48    2 -99.9 -99.9 -999.9 -9.9 -9.999 -99.9 -99.99 -9.99
2019/12/11 20:00 PST  -99.99 -99.99    2   52    2 -99.9 -99.9 -999.9 -9.9 -9.999 -99.9 -99.99 -9.99
2019/12/11 20:06 PST  -99.99 -99.99    2   82    2 -99.9 -99.9 -999.9 -9.9 -9.999 -99.9 -99.99 -9.99
2019/12/11 20:12 PST  -99.99 -99.99    3   73    4 -99.9 -99.9 -999.9 -9.9 -9.999 -99.9 -99.99 -9.99
2019/12/11 20:18 PST  -99.99 -99.99    5   66    6 -99.9 -99.9 -999.9 -9.9 -9.999 -99.9 -99.99 -9.99
2019/12/11 20:24 PST  -99.99 -99.99    3   93    5 -99.9 -99.9 -999.9 -9.9 -9.999 -99.9 -99.99 -9.99
2019/12/11 20:30 PST  -99.99 -99.99    3   88    4 -99.9 -99.9 -999.9 -9.9 -9.999 -99.9 -99.99 -9.99
2019/12/11 20:36 PST  -99.99 -99.99    2  185    2 -99.9 -99.9 -999.9 -9.9 -9.999 -99.9 -99.99 -9.99
2019/12/11 20:42 PST  -99.99 -99.99    1  134    2 -99.9 -99.9 -999.9 -9.9 -9.999 -99.9 -99.99 -9.99
2019/12/11 20:48 PST  -99.99 -99.99    3  148    3 -99.9 -99.9 -999.9 -9.9 -9.999 -99.9 -99.99 -9.99
2019/12/11 20:54 PST  -99.99 -99.99    3  109    4 -99.9 -99.9 -999.9 -9.9 -9.999 -99.9 -99.99 -9.99
2019/12/11 21:00 PST  -99.99 -99.99    4  100    4 -99.9 -99.9 -999.9 -9.9 -9.999 -99.9 -99.99 -9.99
2019/12/11 21:06 PST  -99.99 -99.99    3  108    4 -99.9 -99.9 -999.9 -9.9 -9.999 -99.9 -99.99 -9.99
2019/12/11 21:12 PST  -99.99 -99.99    2  121    3 -99.9 -99.9 -999.9 -9.9 -9.999 -99.9 -99.99 -9.99
2019/12/11 21:18 PST  -99.99 -99.99    3   80    3 -99.9 -99.9 -999.9 -9.9 -9.999 -99.9 -99.99 -9.99
2019/12/11 21:24 PST  -99.99 -99.99    4   94    5 -99.9 -99.9 -999.9 -9.9 -9.999 -99.9 -99.99 -9.99
2019/12/11 21:30 PST  -99.99 -99.99    4  101    5 -99.9 -99.9 -999.9 -9.9 -9.999 -99.9 -99.99 -9.99
2019/12/11 21:36 PST  -99.99 -99.99    5  105    6 -99.9 -99.9 -999.9 -9.9 -9.999 -99.9 -99.99 -9.99
2019/12/11 21:42 PST  -99.99 -99.99    3  122    5 -99.9 -99.9 -999.9 -9.9 -9.999 -99.9 -99.99 -9.99
2019/12/11 21:48 PST  -99.99 -99.99    3   92    4 -99.9 -99.9 -999.9 -9.9 -9.999 -99.9 -99.99 -9.99
2019/12/11 21:54 PST  -99.99 -99.99    4   81    5 -99.9 -99.9 -999.9 -9.9 -9.999 -99.9 -99.99 -9.99
2019/12/11 22:00 PST  -99.99 -99.99    4   83    6 -99.9 -99.9 -999.9 -9.9 -9.999 -99.9 -99.99 -9.99
2019/12/11 22:06 PST  -99.99 -99.99    3   88    4 -99.9 -99.9 -999.9 -9.9 -9.999 -99.9 -99.99 -9.99
2019/12/11 22:12 PST  -99.99 -99.99    4   99    4 -99.9 -99.9 -999.9 -9.9 -9.999 -99.9 -99.99 -9.99
2019/12/11 22:18 PST  -99.99 -99.99    3  107    4 -99.9 -99.9 -999.9 -9.9 -9.999 -99.9 -99.99 -9.99
2019/12/11 22:24 PST  -99.99 -99.99    5   92    5 -99.9 -99.9 -999.9 -9.9 -9.999 -99.9 -99.99 -9.99
2019/12/11 22:30 PST  -99.99 -99.99    5   97    6 -99.9 -99.9 -999.9 -9.9 -9.999 -99.9 -99.99 -9.99
2019/12/11 22:36 PST  -99.99 -99.99    3   96    6 -99.9 -99.9 -999.9 -9.9 -9.999 -99.9 -99.99 -9.99
2019/12/11 22:42 PST  -99.99 -99.99    3   93    3 -99.9 -99.9 -999.9 -9.9 -9.999 -99.9 -99.99 -9.99
2019/12/11 22:48 PST  -99.99 -99.99    3   98    3 -99.9 -99.9 -999.9 -9.9 -9.999 -99.9 -99.99 -9.99
2019/12/11 22:54 PST  -99.99 -99.99 -999 -999 -999 -99.9 -99.9 -999.9 -9.9 -9.999 -99.9 -99.99 -9.99
2019/12/11 23:00 PST  -99.99 -99.99 -999 -999 -999 -99.9 -99.9 -999.9 -9.9 -9.999 -99.9 -99.99 -9.99
2019/12/11 23:06 PST  -99.99 -99.99    4   97    5 -99.9 -99.9 -999.9 -9.9 -9.999 -99.9 -99.99 -9.99
2019/12/11 23:12 PST  -99.99 -99.99    3   79    5 -99.9 -99.9 -999.9 -9.9 -9.999 -99.9 -99.99 -9.99
2019/12/11 23:18 PST  -99.99 -99.99    2   59    3 -99.9 -99.9 -999.9 -9.9 -9.999 -99.9 -99.99 -9.99
2019/12/11 23:24 PST  -99.99 -99.99    3   77    3 -99.9 -99.9 -999.9 -9.9 -9.999 -99.9 -99.99 -9.99
2019/12/11 23:30 PST  -99.99 -99.99    4   88    5 -99.9 -99.9 -999.9 -9.9 -9.999 -99.9 -99.99 -9.99
2019/12/11 23:36 PST  -99.99 -99.99    4   92    5 -99.9 -99.9 -999.9 -9.9 -9.999 -99.9 -99.99 -9.99
2019/12/11 23:42 PST  -99.99 -99.99    3   74    4 -99.9 -99.9 -999.9 -9.9 -9.999 -99.9 -99.99 -9.99
2019/12/11 23:48 PST  -99.99 -99.99    3   90    4 -99.9 -99.9 -999.9 -9.9 -9.999 -99.9 -99.99 -9.99
2019/12/11 23:54 PST  -99.99 -99.99    3   97    4 -99.9 -99.9 -999.9 -9.9 -9.999 -99.9 -99.99 -9.99
2019/12/12 00:00 PST  -99.99 -99.99    2   90    3 -99.9 -99.9 -999.9 -9.9 -9.999 -99.9 -99.99 -9.99
2019/12/12 00:06 PST  -99.99 -99.99    2   80    2 -99.9 -99.9 -999.9 -9.9 -9.999 -99.9 -99.99 -9.99
2019/12/12 00:12 PST  -99.99 -99.99    1   70    1 -99.9 -99.9 -999.9 -9.9 -9.999 -99.9 -99.99 -9.99
2019/12/12 00:18 PST  -99.99 -99.99    2   54    2 -99.9 -99.9 -999.9 -9.9 -9.999 -99.9 -99.99 -9.99
2019/12/12 00:24 PST  -99.99 -99.99    4   60    4 -99.9 -99.9 -999.9 -9.9 -9.999 -99.9 -99.99 -9.99
2019/12/12 00:30 PST  -99.99 -99.99    5   64    6 -99.9 -99.9 -999.9 -9.9 -9.999 -99.9 -99.99 -9.99
2019/12/12 00:36 PST  -99.99 -99.99    5   60    6 -99.9 -99.9 -999.9 -9.9 -9.999 -99.9 -99.99 -9.99
2019/12/12 00:42 PST  -99.99 -99.99    4   67    5 -99.9 -99.9 -999.9 -9.9 -9.999 -99.9 -99.99 -9.99
2019/12/12 00:48 PST  -99.99 -99.99    5   73    6 -99.9 -99.9 -999.9 -9.9 -9.999 -99.9 -99.99 -9.99
2019/12/12 00:54 PST  -99.99 -99.99    3   73    5 -99.9 -99.9 -999.9 -9.9 -9.999 -99.9 -99.99 -9.99
2019/12/12 01:00 PST  -99.99 -99.99    4   79    5 -99.9 -99.9 -999.9 -9.9 -9.999 -99.9 -99.99 -9.99
2019/12/12 01:06 PST  -99.99 -99.99    4   64    6 -99.9 -99.9 -999.9 -9.9 -9.999 -99.9 -99.99 -9.99
2019/12/12 01:12 PST  -99.99 -99.99    3   59    4 -99.9 -99.9 -999.9 -9.9 -9.999 -99.9 -99.99 -9.99
2019/12/12 01:18 PST  -99.99 -99.99    3   54    4 -99.9 -99.9 -999.9 -9.9 -9.999 -99.9 -99.99 -9.99
2019/12/12 01:24 PST  -99.99 -99.99    3   61    4 -99.9 -99.9 -999.9 -9.9 -9.999 -99.9 -99.99 -9.99
2019/12/12 01:30 PST  -99.99 -99.99    3   88    4 -99.9 -99.9 -999.9 -9.9 -9.999 -99.9 -99.99 -9.99
2019/12/12 01:36 PST  -99.99 -99.99    2   85    3 -99.9 -99.9 -999.9 -9.9 -9.999 -99.9 -99.99 -9.99
2019/12/12 01:42 PST  -99.99 -99.99    2   92    3 -99.9 -99.9 -999.9 -9.9 -9.999 -99.9 -99.99 -9.99
2019/12/12 01:48 PST  -99.99 -99.99    2   73    3 -99.9 -99.9 -999.9 -9.9 -9.999 -99.9 -99.99 -9.99
2019/12/12 01:54 PST  -99.99 -99.99    1   53    2 -99.9 -99.9 -999.9 -9.9 -9.999 -99.9 -99.99 -9.99
2019/12/12 02:00 PST  -99.99 -99.99    1   49    2 -99.9 -99.9 -999.9 -9.9 -9.999 -99.9 -99.99 -9.99
2019/12/12 02:06 PST  -99.99 -99.99    1   88    1 -99.9 -99.9 -999.9 -9.9 -9.999 -99.9 -99.99 -9.99
2019/12/12 02:12 PST  -99.99 -99.99    1   69    2 -99.9 -99.9 -999.9 -9.9 -9.999 -99.9 -99.99 -9.99
2019/12/12 02:18 PST  -99.99 -99.99    2   60    2 -99.9 -99.9 -999.9 -9.9 -9.999 -99.9 -99.99 -9.99
2019/12/12 02:24 PST  -99.99 -99.99    3   47    4 -99.9 -99.9 -999.9 -9.9 -9.999 -99.9 -99.99 -9.99
2019/12/12 02:30 PST  -99.99 -99.99    2   46    4 -99.9 -99.9 -999.9 -9.9 -9.999 -99.9 -99.99 -9.99
2019/12/12 02:36 PST  -99.99 -99.99    2   50    3 -99.9 -99.9 -999.9 -9.9 -9.999 -99.9 -99.99 -9.99
2019/12/12 02:42 PST  -99.99 -99.99    2   49    4 -99.9 -99.9 -999.9 -9.9 -9.999 -99.9 -99.99 -9.99
2019/12/12 02:48 PST  -99.99 -99.99    2   48    3 -99.9 -99.9 -999.9 -9.9 -9.999 -99.9 -99.99 -9.99
2019/12/12 02:54 PST  -99.99 -99.99    3   46    3 -99.9 -99.9 -999.9 -9.9 -9.999 -99.9 -99.99 -9.99
2019/12/12 03:00 PST  -99.99 -99.99    1   30    3 -99.9 -99.9 -999.9 -9.9 -9.999 -99.9 -99.99 -9.99
2019/12/12 03:06 PST  -99.99 -99.99    1   35    2 -99.9 -99.9 -999.9 -9.9 -9.999 -99.9 -99.99 -9.99
2019/12/12 03:12 PST  -99.99 -99.99    2    8    2 -99.9 -99.9 -999.9 -9.9 -9.999 -99.9 -99.99 -9.99
2019/12/12 03:18 PST  -99.99 -99.99    2   12    3 -99.9 -99.9 -999.9 -9.9 -9.999 -99.9 -99.99 -9.99
2019/12/12 03:24 PST  -99.99 -99.99    2   15    2 -99.9 -99.9 -999.9 -9.9 -9.999 -99.9 -99.99 -9.99
2019/12/12 03:30 PST  -99.99 -99.99 -999 -999 -999 -99.9 -99.9 -999.9 -9.9 -9.999 -99.9 -99.99 -9.99
2019/12/12 03:36 PST  -99.99 -99.99 -999 -999 -999 -99.9 -99.9 -999.9 -9.9 -9.999 -99.9 -99.99 -9.99
2019/12/12 03:42 PST  -99.99 -99.99    2   45    4 -99.9 -99.9 -999.9 -9.9 -9.999 -99.9 -99.99 -9.99
2019/12/12 03:48 PST  -99.99 -99.99    1   42    2 -99.9 -99.9 -999.9 -9.9 -9.999 -99.9 -99.99 -9.99
2019/12/12 03:54 PST  -99.99 -99.99    1   38    2 -99.9 -99.9 -999.9 -9.9 -9.999 -99.9 -99.99 -9.99
2019/12/12 04:00 PST  -99.99 -99.99    1   36    1 -99.9 -99.9 -999.9 -9.9 -9.999 -99.9 -99.99 -9.99
2019/12/12 04:06 PST  -99.99 -99.99    1   47    1 -99.9 -99.9 -999.9 -9.9 -9.999 -99.9 -99.99 -9.99
2019/12/12 04:12 PST  -99.99 -99.99    1   44    2 -99.9 -99.9 -999.9 -9.9 -9.999 -99.9 -99.99 -9.99
2019/12/12 04:18 PST  -99.99 -99.99    2   42    3 -99.9 -99.9 -999.9 -9.9 -9.999 -99.9 -99.99 -9.99
2019/12/12 04:24 PST  -99.99 -99.99    3   44    4 -99.9 -99.9 -999.9 -9.9 -9.999 -99.9 -99.99 -9.99
2019/12/12 04:30 PST  -99.99 -99.99    1   38    3 -99.9 -99.9 -999.9 -9.9 -9.999 -99.9 -99.99 -9.99
2019/12/12 04:36 PST  -99.99 -99.99    2   52    3 -99.9 -99.9 -999.9 -9.9 -9.999 -99.9 -99.99 -9.99
2019/12/12 04:42 PST  -99.99 -99.99    2   56    3 -99.9 -99.9 -999.9 -9.9 -9.999 -99.9 -99.99 -9.99
2019/12/12 04:48 PST  -99.99 -99.99    2   44    3 -99.9 -99.9 -999.9 -9.9 -9.999 -99.9 -99.99 -9.99
2019/12/12 04:54 PST  -99.99 -99.99    2   48    3 -99.9 -99.9 -999.9 -9.9 -9.999 -99.9 -99.99 -9.99
2019/12/12 05:00 PST  -99.99 -99.99    1   50    2 -99.9 -99.9 -999.9 -9.9 -9.999 -99.9 -99.99 -9.99
2019/12/12 05:06 PST  -99.99 -99.99    1   44    2 -99.9 -99.9 -999.9 -9.9 -9.999 -99.9 -99.99 -9.99
2019/12/12 05:12 PST  -99.99 -99.99    2   46    3 -99.9 -99.9 -999.9 -9.9 -9.999 -99.9 -99.99 -9.99
2019/12/12 05:18 PST  -99.99 -99.99    2   38    3 -99.9 -99.9 -999.9 -9.9 -9.999 -99.9 -99.99 -9.99
2019/12/12 05:24 PST  -99.99 -99.99    2   43    3 -99.9 -99.9 -999.9 -9.9 -9.999 -99.9 -99.99 -9.99
2019/12/12 05:30 PST  -99.99 -99.99    2   53    3 -99.9 -99.9 -999.9 -9.9 -9.999 -99.9 -99.99 -9.99
2019/12/12 05:36 PST  -99.99 -99.99    1   79    3 -99.9 -99.9 -999.9 -9.9 -9.999 -99.9 -99.99 -9.99
2019/12/12 05:42 PST  -99.99 -99.99    2  116    2 -99.9 -99.9 -999.9 -9.9 -9.999 -99.9 -99.99 -9.99
2019/12/12 05:48 PST  -99.99 -99.99    0  155    2 -99.9 -99.9 -999.9 -9.9 -9.999 -99.9 -99.99 -9.99
2019/12/12 05:54 PST  -99.99 -99.99    0   77    1 -99.9 -99.9 -999.9 -9.9 -9.999 -99.9 -99.99 -9.99
2019/12/12 06:00 PST  -99.99 -99.99    2   58    3 -99.9 -99.9 -999.9 -9.9 -9.999 -99.9 -99.99 -9.99
2019/12/12 06:06 PST  -99.99 -99.99    1   53    2 -99.9 -99.9 -999.9 -9.9 -9.999 -99.9 -99.99 -9.99
2019/12/12 06:12 PST  -99.99 -99.99    2   61    3 -99.9 -99.9 -999.9 -9.9 -9.999 -99.9 -99.99 -9.99
2019/12/12 06:18 PST  -99.99 -99.99    1   74    2 -99.9 -99.9 -999.9 -9.9 -9.999 -99.9 -99.99 -9.99
2019/12/12 06:24 PST  -99.99 -99.99    1   70    2 -99.9 -99.9 -999.9 -9.9 -9.999 -99.9 -99.99 -9.99
2019/12/12 06:30 PST  -99.99 -99.99    0   75    2 -99.9 -99.9 -999.9 -9.9 -9.999 -99.9 -99.99 -9.99
2019/12/12 06:36 PST  -99.99 -99.99    0   85    1 -99.9 -99.9 -999.9 -9.9 -9.999 -99.9 -99.99 -9.99
2019/12/12 06:42 PST  -99.99 -99.99    0  306    1 -99.9 -99.9 -999.9 -9.9 -9.999 -99.9 -99.99 -9.99
2019/12/12 06:48 PST  -99.99 -99.99    1  253    1 -99.9 -99.9 -999.9 -9.9 -9.999 -99.9 -99.99 -9.99
2019/12/12 06:54 PST  -99.99 -99.99    0    0    1 -99.9 -99.9 -999.9 -9.9 -9.999 -99.9 -99.99 -9.99
2019/12/12 07:00 PST  -99.99 -99.99    0  306    1 -99.9 -99.9 -999.9 -9.9 -9.999 -99.9 -99.99 -9.99
2019/12/12 07:06 PST  -99.99 -99.99    1  326    2 -99.9 -99.9 -999.9 -9.9 -9.999 -99.9 -99.99 -9.99
2019/12/12 07:12 PST  -99.99 -99.99    2  352    2 -99.9 -99.9 -999.9 -9.9 -9.999 -99.9 -99.99 -9.99
2019/12/12 07:18 PST  -99.99 -99.99    2   12    3 -99.9 -99.9 -999.9 -9.9 -9.999 -99.9 -99.99 -9.99
2019/12/12 07:24 PST  -99.99 -99.99    2   21    4 -99.9 -99.9 -999.9 -9.9 -9.999 -99.9 -99.99 -9.99
2019/12/12 07:30 PST  -99.99 -99.99    1   50    3 -99.9 -99.9 -999.9 -9.9 -9.999 -99.9 -99.99 -9.99
2019/12/12 07:36 PST  -99.99 -99.99    2   54    2 -99.9 -99.9 -999.9 -9.9 -9.999 -99.9 -99.99 -9.99
2019/12/12 07:42 PST  -99.99 -99.99    2   55    2 -99.9 -99.9 -999.9 -9.9 -9.999 -99.9 -99.99 -9.99
2019/12/12 07:48 PST  -99.99 -99.99    2   54    3 -99.9 -99.9 -999.9 -9.9 -9.999 -99.9 -99.99 -9.99
2019/12/12 07:54 PST  -99.99 -99.99    3   52    3 -99.9 -99.9 -999.9 -9.9 -9.999 -99.9 -99.99 -9.99
2019/12/12 08:00 PST  -99.99 -99.99    3   43    3 -99.9 -99.9 -999.9 -9.9 -9.999 -99.9 -99.99 -9.99
2019/12/12 08:06 PST  -99.99 -99.99    2   47    3 -99.9 -99.9 -999.9 -9.9 -9.999 -99.9 -99.99 -9.99
2019/12/12 08:12 PST  -99.99 -99.99    3   45    3 -99.9 -99.9 -999.9 -9.9 -9.999 -99.9 -99.99 -9.99
2019/12/12 08:18 PST  -99.99 -99.99    2   49    3 -99.9 -99.9 -999.9 -9.9 -9.999 -99.9 -99.99 -9.99
2019/12/12 08:24 PST  -99.99 -99.99    2   52    3 -99.9 -99.9 -999.9 -9.9 -9.999 -99.9 -99.99 -9.99
2019/12/12 08:30 PST  -99.99 -99.99    2   71    2 -99.9 -99.9 -999.9 -9.9 -9.999 -99.9 -99.99 -9.99
2019/12/12 08:36 PST  -99.99 -99.99    2   73    3 -99.9 -99.9 -999.9 -9.9 -9.999 -99.9 -99.99 -9.99
2019/12/12 08:42 PST  -99.99 -99.99    2   60    3 -99.9 -99.9 -999.9 -9.9 -9.999 -99.9 -99.99 -9.99
2019/12/12 08:48 PST  -99.99 -99.99    1   81    2 -99.9 -99.9 -999.9 -9.9 -9.999 -99.9 -99.99 -9.99
2019/12/12 08:54 PST  -99.99 -99.99    2   82    3 -99.9 -99.9 -999.9 -9.9 -9.999 -99.9 -99.99 -9.99
2019/12/12 09:00 PST  -99.99 -99.99    1   82    2 -99.9 -99.9 -999.9 -9.9 -9.999 -99.9 -99.99 -9.99
2019/12/12 09:06 PST  -99.99 -99.99    1  109    2 -99.9 -99.9 -999.9 -9.9 -9.999 -99.9 -99.99 -9.99
2019/12/12 09:12 PST  -99.99 -99.99    0   64    1 -99.9 -99.9 -999.9 -9.9 -9.999 -99.9 -99.99 -9.99
2019/12/12 09:18 PST  -99.99 -99.99    1   99    1 -99.9 -99.9 -999.9 -9.9 -9.999 -99.9 -99.99 -9.99
2019/12/12 09:24 PST  -99.99 -99.99    0   78    1 -99.9 -99.9 -999.9 -9.9 -9.999 -99.9 -99.99 -9.99
2019/12/12 09:30 PST  -99.99 -99.99    0   99    1 -99.9 -99.9 -999.9 -9.9 -9.999 -99.9 -99.99 -9.99
2019/12/12 09:36 PST  -99.99 -99.99    2   66    2 -99.9 -99.9 -999.9 -9.9 -9.999 -99.9 -99.99 -9.99
2019/12/12 09:42 PST  -99.99 -99.99    2   85    2 -99.9 -99.9 -999.9 -9.9 -9.999 -99.9 -99.99 -9.99
2019/12/12 09:48 PST  -99.99 -99.99    1  131    2 -99.9 -99.9 -999.9 -9.9 -9.999 -99.9 -99.99 -9.99
2019/12/12 09:54 PST  -99.99 -99.99    2  128    2 -99.9 -99.9 -999.9 -9.9 -9.999 -99.9 -99.99 -9.99
2019/12/12 10:00 PST  -99.99 -99.99    3  175    4 -99.9 -99.9 -999.9 -9.9 -9.999 -99.9 -99.99 -9.99
2019/12/12 10:06 PST  -99.99 -99.99    2  124    4 -99.9 -99.9 -999.9 -9.9 -9.999 -99.9 -99.99 -9.99
2019/12/12 10:12 PST  -99.99 -99.99    3  142    4 -99.9 -99.9 -999.9 -9.9 -9.999 -99.9 -99.99 -9.99
2019/12/12 10:18 PST  -99.99 -99.99    3  176    5 -99.9 -99.9 -999.9 -9.9 -9.999 -99.9 -99.99 -9.99
2019/12/12 10:24 PST  -99.99 -99.99    2  182    4 -99.9 -99.9 -999.9 -9.9 -9.999 -99.9 -99.99 -9.99
2019/12/12 10:30 PST  -99.99 -99.99    2  109    4 -99.9 -99.9 -999.9 -9.9 -9.999 -99.9 -99.99 -9.99
2019/12/12 10:36 PST  -99.99 -99.99    1  134    2 -99.9 -99.9 -999.9 -9.9 -9.999 -99.9 -99.99 -9.99
2019/12/12 10:42 PST  -99.99 -99.99    4  189    5 -99.9 -99.9 -999.9 -9.9 -9.999 -99.9 -99.99 -9.99
2019/12/12 10:48 PST  -99.99 -99.99    3  169    7 -99.9 -99.9 -999.9 -9.9 -9.999 -99.9 -99.99 -9.99
2019/12/12 10:54 PST  -99.99 -99.99    2  129    4 -99.9 -99.9 -999.9 -9.9 -9.999 -99.9 -99.99 -9.99
2019/12/12 11:00 PST  -99.99 -99.99    4  159    4 -99.9 -99.9 -999.9 -9.9 -9.999 -99.9 -99.99 -9.99
2019/12/12 11:06 PST  -99.99 -99.99    5  157    6 -99.9 -99.9 -999.9 -9.9 -9.999 -99.9 -99.99 -9.99
2019/12/12 11:12 PST  -99.99 -99.99    5  172    7 -99.9 -99.9 -999.9 -9.9 -9.999 -99.9 -99.99 -9.99
2019/12/12 11:18 PST  -99.99 -99.99    4  169    7 -99.9 -99.9 -999.9 -9.9 -9.999 -99.9 -99.99 -9.99
2019/12/12 11:24 PST  -99.99 -99.99    4  155    6 -99.9 -99.9 -999.9 -9.9 -9.999 -99.9 -99.99 -9.99
2019/12/12 11:30 PST  -99.99 -99.99    4  158    6 -99.9 -99.9 -999.9 -9.9 -9.999 -99.9 -99.99 -9.99
2019/12/12 11:36 PST  -99.99 -99.99    3  177    6 -99.9 -99.9 -999.9 -9.9 -9.999 -99.9 -99.99 -9.99
2019/12/12 11:42 PST  -99.99 -99.99    6  166    7 -99.9 -99.9 -999.9 -9.9 -9.999 -99.9 -99.99 -9.99
2019/12/12 11:48 PST  -99.99 -99.99    4  159    7 -99.9 -99.9 -999.9 -9.9 -9.999 -99.9 -99.99 -9.99
2019/12/12 11:54 PST  -99.99 -99.99    5  163    7 -99.9 -99.9 -999.9 -9.9 -9.999 -99.9 -99.99 -9.99
2019/12/12 12:00 PST  -99.99 -99.99    5  176    7 -99.9 -99.9 -999.9 -9.9 -9.999 -99.9 -99.99 -9.99
2019/12/12 12:06 PST  -99.99 -99.99    4  146    7 -99.9 -99.9 -999.9 -9.9 -9.999 -99.9 -99.99 -9.99
2019/12/12 12:12 PST  -99.99 -99.99    5  155    6 -99.9 -99.9 -999.9 -9.9 -9.999 -99.9 -99.99 -9.99
2019/12/12 12:18 PST  -99.99 -99.99    6  159    8 -99.9 -99.9 -999.9 -9.9 -9.999 -99.9 -99.99 -9.99
2019/12/12 12:24 PST  -99.99 -99.99    5  154    6 -99.9 -99.9 -999.9 -9.9 -9.999 -99.9 -99.99 -9.99
2019/12/12 12:30 PST  -99.99 -99.99    5  175    7 -99.9 -99.9 -999.9 -9.9 -9.999 -99.9 -99.99 -9.99
2019/12/12 12:36 PST  -99.99 -99.99    3  164    4 -99.9 -99.9 -999.9 -9.9 -9.999 -99.9 -99.99 -9.99
2019/12/12 12:42 PST  -99.99 -99.99    4  154    6 -99.9 -99.9 -999.9 -9.9 -9.999 -99.9 -99.99 -9.99
2019/12/12 12:48 PST  -99.99 -99.99    6  180    8 -99.9 -99.9 -999.9 -9.9 -9.999 -99.9 -99.99 -9.99
2019/12/12 12:54 PST  -99.99 -99.99    4  169    8 -99.9 -99.9 -999.9 -9.9 -9.999 -99.9 -99.99 -9.99
2019/12/12 13:00 PST  -99.99 -99.99    5  168    7 -99.9 -99.9 -999.9 -9.9 -9.999 -99.9 -99.99 -9.99
2019/12/12 13:06 PST  -99.99 -99.99    5  190    7 -99.9 -99.9 -999.9 -9.9 -9.999 -99.9 -99.99 -9.99
2019/12/12 13:12 PST  -99.99 -99.99    4  200    6 -99.9 -99.9 -999.9 -9.9 -9.999 -99.9 -99.99 -9.99
2019/12/12 13:18 PST  -99.99 -99.99    2  188    5 -99.9 -99.9 -999.9 -9.9 -9.999 -99.9 -99.99 -9.99
2019/12/12 13:24 PST  -99.99 -99.99    4  157    6 -99.9 -99.9 -999.9 -9.9 -9.999 -99.9 -99.99 -9.99
2019/12/12 13:30 PST  -99.99 -99.99    4  176    7 -99.9 -99.9 -999.9 -9.9 -9.999 -99.9 -99.99 -9.99
2019/12/12 13:36 PST  -99.99 -99.99    3  191    5 -99.9 -99.9 -999.9 -9.9 -9.999 -99.9 -99.99 -9.99
2019/12/12 13:42 PST  -99.99 -99.99    4  173    5 -99.9 -99.9 -999.9 -9.9 -9.999 -99.9 -99.99 -9.99
2019/12/12 13:48 PST  -99.99 -99.99    3  183    4 -99.9 -99.9 -999.9 -9.9 -9.999 -99.9 -99.99 -9.99
2019/12/12 13:54 PST  -99.99 -99.99    4  150    5 -99.9 -99.9 -999.9 -9.9 -9.999 -99.9 -99.99 -9.99
2019/12/12 14:00 PST  -99.99 -99.99    4  143    5 -99.9 -99.9 -999.9 -9.9 -9.999 -99.9 -99.99 -9.99
2019/12/12 14:06 PST  -99.99 -99.99    5  187    6 -99.9 -99.9 -999.9 -9.9 -9.999 -99.9 -99.99 -9.99
2019/12/12 14:12 PST  -99.99 -99.99    4  180    6 -99.9 -99.9 -999.9 -9.9 -9.999 -99.9 -99.99 -9.99
2019/12/12 14:18 PST  -99.99 -99.99    4  178    6 -99.9 -99.9 -999.9 -9.9 -9.999 -99.9 -99.99 -9.99
2019/12/12 14:24 PST  -99.99 -99.99    5  188    6 -99.9 -99.9 -999.9 -9.9 -9.999 -99.9 -99.99 -9.99
2019/12/12 14:30 PST  -99.99 -99.99    4  189    6 -99.9 -99.9 -999.9 -9.9 -9.999 -99.9 -99.99 -9.99
2019/12/12 14:36 PST  -99.99 -99.99    4  177    5 -99.9 -99.9 -999.9 -9.9 -9.999 -99.9 -99.99 -9.99
2019/12/12 14:42 PST  -99.99 -99.99    5  179    7 -99.9 -99.9 -999.9 -9.9 -9.999 -99.9 -99.99 -9.99
2019/12/12 14:48 PST  -99.99 -99.99    5  180    6 -99.9 -99.9 -999.9 -9.9 -9.999 -99.9 -99.99 -9.99
2019/12/12 14:54 PST  -99.99 -99.99    5  168    6 -99.9 -99.9 -999.9 -9.9 -9.999 -99.9 -99.99 -9.99
2019/12/12 15:00 PST  -99.99 -99.99    5  172    7 -99.9 -99.9 -999.9 -9.9 -9.999 -99.9 -99.99 -9.99
2019/12/12 15:06 PST  -99.99 -99.99    5  149    7 -99.9 -99.9 -999.9 -9.9 -9.999 -99.9 -99.99 -9.99
2019/12/12 15:12 PST  -99.99 -99.99    4  162    7 -99.9 -99.9 -999.9 -9.9 -9.999 -99.9 -99.99 -9.99
2019/12/12 15:18 PST  -99.99 -99.99    5  161    7 -99.9 -99.9 -999.9 -9.9 -9.999 -99.9 -99.99 -9.99
2019/12/12 15:24 PST  -99.99 -99.99    5  157    6 -99.9 -99.9 -999.9 -9.9 -9.999 -99.9 -99.99 -9.99
2019/12/12 15:30 PST  -99.99 -99.99    7  159    7 -99.9 -99.9 -999.9 -9.9 -9.999 -99.9 -99.99 -9.99
2019/12/12 15:36 PST  -99.99 -99.99    5  159    7 -99.9 -99.9 -999.9 -9.9 -9.999 -99.9 -99.99 -9.99
2019/12/12 15:42 PST  -99.99 -99.99    6  149    7 -99.9 -99.9 -999.9 -9.9 -9.999 -99.9 -99.99 -9.99
2019/12/12 15:48 PST  -99.99 -99.99    7  159    8 -99.9 -99.9 -999.9 -9.9 -9.999 -99.9 -99.99 -9.99
2019/12/12 15:54 PST  -99.99 -99.99    7  164    8 -99.9 -99.9 -999.9 -9.9 -9.999 -99.9 -99.99 -9.99
2019/12/12 16:00 PST  -99.99 -99.99    6  157    8 -99.9 -99.9 -999.9 -9.9 -9.999 -99.9 -99.99 -9.99
2019/12/12 16:06 PST  -99.99 -99.99    5  174    8 -99.9 -99.9 -999.9 -9.9 -9.999 -99.9 -99.99 -9.99
2019/12/12 16:12 PST  -99.99 -99.99    5  168    7 -99.9 -99.9 -999.9 -9.9 -9.999 -99.9 -99.99 -9.99
2019/12/12 16:18 PST  -99.99 -99.99    3  175    5 -99.9 -99.9 -999.9 -9.9 -9.999 -99.9 -99.99 -9.99
2019/12/12 16:24 PST  -99.99 -99.99    3  183    5 -99.9 -99.9 -999.9 -9.9 -9.999 -99.9 -99.99 -9.99
2019/12/12 16:30 PST  -99.99 -99.99    3  178    6 -99.9 -99.9 -999.9 -9.9 -9.999 -99.9 -99.99 -9.99
2019/12/12 16:36 PST  -99.99 -99.99    3  182    5 -99.9 -99.9 -999.9 -9.9 -9.999 -99.9 -99.99 -9.99
2019/12/12 16:42 PST  -99.99 -99.99    2  190    5 -99.9 -99.9 -999.9 -9.9 -9.999 -99.9 -99.99 -9.99
2019/12/12 16:48 PST  -99.99 -99.99    4  176    5 -99.9 -99.9 -999.9 -9.9 -9.999 -99.9 -99.99 -9.99
2019/12/12 16:54 PST  -99.99 -99.99    3  179    5 -99.9 -99.9 -999.9 -9.9 -9.999 -99.9 -99.99 -9.99
2019/12/12 17:00 PST  -99.99 -99.99    4  171    4 -99.9 -99.9 -999.9 -9.9 -9.999 -99.9 -99.99 -9.99
2019/12/12 17:06 PST  -99.99 -99.99    3  174    4 -99.9 -99.9 -999.9 -9.9 -9.999 -99.9 -99.99 -9.99
2019/12/12 17:12 PST  -99.99 -99.99    4  169    4 -99.9 -99.9 -999.9 -9.9 -9.999 -99.9 -99.99 -9.99
2019/12/12 17:18 PST  -99.99 -99.99    4  179    4 -99.9 -99.9 -999.9 -9.9 -9.999 -99.9 -99.99 -9.99
2019/12/12 17:24 PST  -99.99 -99.99    3  163    4 -99.9 -99.9 -999.9 -9.9 -9.999 -99.9 -99.99 -9.99
2019/12/12 17:30 PST  -99.99 -99.99    2  163    3 -99.9 -99.9 -999.9 -9.9 -9.999 -99.9 -99.99 -9.99
2019/12/12 17:36 PST  -99.99 -99.99    2  138    2 -99.9 -99.9 -999.9 -9.9 -9.999 -99.9 -99.99 -9.99
2019/12/12 17:42 PST  -99.99 -99.99    2  126    3 -99.9 -99.9 -999.9 -9.9 -9.999 -99.9 -99.99 -9.99
2019/12/12 17:48 PST  -99.99 -99.99    2  124    2 -99.9 -99.9 -999.9 -9.9 -9.999 -99.9 -99.99 -9.99
2019/12/12 17:54 PST  -99.99 -99.99    1   94    3 -99.9 -99.9 -999.9 -9.9 -9.999 -99.9 -99.99 -9.99
2019/12/12 18:00 PST  -99.99 -99.99    2   72    3 -99.9 -99.9 -999.9 -9.9 -9.999 -99.9 -99.99 -9.99
2019/12/12 18:06 PST  -99.99 -99.99    1   49    1 -99.9 -99.9 -999.9 -9.9 -9.999 -99.9 -99.99 -9.99
2019/12/12 18:12 PST  -99.99 -99.99    2   73    2 -99.9 -99.9 -999.9 -9.9 -9.999 -99.9 -99.99 -9.99
2019/12/12 18:18 PST  -99.99 -99.99    1   46    2 -99.9 -99.9 -999.9 -9.9 -9.999 -99.9 -99.99 -9.99
2019/12/12 18:24 PST  -99.99 -99.99    1   42    2 -99.9 -99.9 -999.9 -9.9 -9.999 -99.9 -99.99 -9.99
2019/12/12 18:30 PST  -99.99 -99.99    1    9    1 -99.9 -99.9 -999.9 -9.9 -9.999 -99.9 -99.99 -9.99
2019/12/12 18:36 PST  -99.99 -99.99    1  329    3 -99.9 -99.9 -999.9 -9.9 -9.999 -99.9 -99.99 -9.99
2019/12/12 18:42 PST  -99.99 -99.99    1   26    1 -99.9 -99.9 -999.9 -9.9 -9.999 -99.9 -99.99 -9.99
2019/12/12 18:48 PST  -99.99 -99.99    2   31    3 -99.9 -99.9 -999.9 -9.9 -9.999 -99.9 -99.99 -9.99
2019/12/12 18:54 PST  -99.99 -99.99    2   43    3 -99.9 -99.9 -999.9 -9.9 -9.999 -99.9 -99.99 -9.99
2019/12/12 19:00 PST  -99.99 -99.99    2   66    3 -99.9 -99.9 -999.9 -9.9 -9.999 -99.9 -99.99 -9.99
2019/12/12 19:06 PST  -99.99 -99.99    3   66    4 -99.9 -99.9 -999.9 -9.9 -9.999 -99.9 -99.99 -9.99
2019/12/12 19:12 PST  -99.99 -99.99    3   59    4 -99.9 -99.9 -999.9 -9.9 -9.999 -99.9 -99.99 -9.99
2019/12/12 19:18 PST  -99.99 -99.99    1   56    3 -99.9 -99.9 -999.9 -9.9 -9.999 -99.9 -99.99 -9.99
2019/12/12 19:24 PST  -99.99 -99.99    2   51    3 -99.9 -99.9 -999.9 -9.9 -9.999 -99.9 -99.99 -9.99
2019/12/12 19:30 PST  -99.99 -99.99    3   52    4 -99.9 -99.9 -999.9 -9.9 -9.999 -99.9 -99.99 -9.99
2019/12/12 19:36 PST  -99.99 -99.99    3   77    4 -99.9 -99.9 -999.9 -9.9 -9.999 -99.9 -99.99 -9.99
2019/12/12 19:42 PST  -99.99 -99.99    2   84    3 -99.9 -99.9 -999.9 -9.9 -9.999 -99.9 -99.99 -9.99
2019/12/12 19:48 PST  -99.99 -99.99    3   69    4 -99.9 -99.9 -999.9 -9.9 -9.999 -99.9 -99.99 -9.99
2019/12/12 19:54 PST  -99.99 -99.99    1   87    2 -99.9 -99.9 -999.9 -9.9 -9.999 -99.9 -99.99 -9.99
2019/12/12 20:00 PST  -99.99 -99.99    1  112    2 -99.9 -99.9 -999.9 -9.9 -9.999 -99.9 -99.99 -9.99
2019/12/12 20:06 PST  -99.99 -99.99    2  128    2 -99.9 -99.9 -999.9 -9.9 -9.999 -99.9 -99.99 -9.99
2019/12/12 20:12 PST  -99.99 -99.99    2  109    3 -99.9 -99.9 -999.9 -9.9 -9.999 -99.9 -99.99 -9.99
2019/12/12 20:18 PST  -99.99 -99.99    2   82    3 -99.9 -99.9 -999.9 -9.9 -9.999 -99.9 -99.99 -9.99
2019/12/12 20:24 PST  -99.99 -99.99    2   96    3 -99.9 -99.9 -999.9 -9.9 -9.999 -99.9 -99.99 -9.99
2019/12/12 20:30 PST  -99.99 -99.99    2   89    3 -99.9 -99.9 -999.9 -9.9 -9.999 -99.9 -99.99 -9.99
2019/12/12 20:36 PST  -99.99 -99.99    2   84    2 -99.9 -99.9 -999.9 -9.9 -9.999 -99.9 -99.99 -9.99
2019/12/12 20:42 PST  -99.99 -99.99    1  105    2 -99.9 -99.9 -999.9 -9.9 -9.999 -99.9 -99.99 -9.99
2019/12/12 20:48 PST  -99.99 -99.99    2  108    3 -99.9 -99.9 -999.9 -9.9 -9.999 -99.9 -99.99 -9.99
2019/12/12 20:54 PST  -99.99 -99.99    3  116    3 -99.9 -99.9 -999.9 -9.9 -9.999 -99.9 -99.99 -9.99
2019/12/12 21:00 PST  -99.99 -99.99    3  117    3 -99.9 -99.9 -999.9 -9.9 -9.999 -99.9 -99.99 -9.99
2019/12/12 21:06 PST  -99.99 -99.99    3  115    4 -99.9 -99.9 -999.9 -9.9 -9.999 -99.9 -99.99 -9.99
2019/12/12 21:12 PST  -99.99 -99.99    3  124    4 -99.9 -99.9 -999.9 -9.9 -9.999 -99.9 -99.99 -9.99
2019/12/12 21:18 PST  -99.99 -99.99    3  109    3 -99.9 -99.9 -999.9 -9.9 -9.999 -99.9 -99.99 -9.99
2019/12/12 21:24 PST  -99.99 -99.99    3   88    4 -99.9 -99.9 -999.9 -9.9 -9.999 -99.9 -99.99 -9.99
2019/12/12 21:30 PST  -99.99 -99.99    4  115    4 -99.9 -99.9 -999.9 -9.9 -9.999 -99.9 -99.99 -9.99
2019/12/12 21:36 PST  -99.99 -99.99    3  120    4 -99.9 -99.9 -999.9 -9.9 -9.999 -99.9 -99.99 -9.99
2019/12/12 21:42 PST  -99.99 -99.99    3  139    3 -99.9 -99.9 -999.9 -9.9 -9.999 -99.9 -99.99 -9.99
2019/12/12 21:48 PST  -99.99 -99.99    3  130    3 -99.9 -99.9 -999.9 -9.9 -9.999 -99.9 -99.99 -9.99
2019/12/12 21:54 PST  -99.99 -99.99    3  144    4 -99.9 -99.9 -999.9 -9.9 -9.999 -99.9 -99.99 -9.99
2019/12/12 22:00 PST  -99.99 -99.99    3  120    3 -99.9 -99.9 -999.9 -9.9 -9.999 -99.9 -99.99 -9.99
2019/12/12 22:06 PST  -99.99 -99.99    2   82    3 -99.9 -99.9 -999.9 -9.9 -9.999 -99.9 -99.99 -9.99
2019/12/12 22:12 PST  -99.99 -99.99    3  106    4 -99.9 -99.9 -999.9 -9.9 -9.999 -99.9 -99.99 -9.99
2019/12/12 22:18 PST  -99.99 -99.99    3   97    4 -99.9 -99.9 -999.9 -9.9 -9.999 -99.9 -99.99 -9.99
2019/12/12 22:24 PST  -99.99 -99.99    2   89    4 -99.9 -99.9 -999.9 -9.9 -9.999 -99.9 -99.99 -9.99
2019/12/12 22:30 PST  -99.99 -99.99    2   93    3 -99.9 -99.9 -999.9 -9.9 -9.999 -99.9 -99.99 -9.99
2019/12/12 22:36 PST  -99.99 -99.99    3   91    4 -99.9 -99.9 -999.9 -9.9 -9.999 -99.9 -99.99 -9.99
2019/12/12 22:42 PST  -99.99 -99.99    4   89    4 -99.9 -99.9 -999.9 -9.9 -9.999 -99.9 -99.99 -9.99
2019/12/12 22:48 PST  -99.99 -99.99    3   97    4 -99.9 -99.9 -999.9 -9.9 -9.999 -99.9 -99.99 -9.99
2019/12/12 22:54 PST  -99.99 -99.99    1  107    3 -99.9 -99.9 -999.9 -9.9 -9.999 -99.9 -99.99 -9.99
2019/12/12 23:00 PST  -99.99 -99.99    1   70    2 -99.9 -99.9 -999.9 -9.9 -9.999 -99.9 -99.99 -9.99
2019/12/12 23:06 PST  -99.99 -99.99    1   77    2 -99.9 -99.9 -999.9 -9.9 -9.999 -99.9 -99.99 -9.99
2019/12/12 23:12 PST  -99.99 -99.99    2   66    2 -99.9 -99.9 -999.9 -9.9 -9.999 -99.9 -99.99 -9.99
2019/12/12 23:18 PST  -99.99 -99.99    2   81    2 -99.9 -99.9 -999.9 -9.9 -9.999 -99.9 -99.99 -9.99
2019/12/12 23:24 PST  -99.99 -99.99    2   91    2 -99.9 -99.9 -999.9 -9.9 -9.999 -99.9 -99.99 -9.99
2019/12/12 23:30 PST  -99.99 -99.99    2   65    2 -99.9 -99.9 -999.9 -9.9 -9.999 -99.9 -99.99 -9.99
2019/12/12 23:36 PST  -99.99 -99.99    2  107    3 -99.9 -99.9 -999.9 -9.9 -9.999 -99.9 -99.99 -9.99
2019/12/12 23:42 PST  -99.99 -99.99    1  103    2 -99.9 -99.9 -999.9 -9.9 -9.999 -99.9 -99.99 -9.99
2019/12/12 23:48 PST  -99.99 -99.99    1  112    2 -99.9 -99.9 -999.9 -9.9 -9.999 -99.9 -99.99 -9.99
2019/12/12 23:54 PST  -99.99 -99.99    2  123    3 -99.9 -99.9 -999.9 -9.9 -9.999 -99.9 -99.99 -9.99
2019/12/13 00:00 PST  -99.99 -99.99    3  116    3 -99.9 -99.9 -999.9 -9.9 -9.999 -99.9 -99.99 -9.99
2019/12/13 00:06 PST  -99.99 -99.99    2  167    3 -99.9 -99.9 -999.9 -9.9 -9.999 -99.9 -99.99 -9.99
2019/12/13 00:12 PST  -99.99 -99.99    2  142    2 -99.9 -99.9 -999.9 -9.9 -9.999 -99.9 -99.99 -9.99
2019/12/13 00:18 PST  -99.99 -99.99    1  140    2 -99.9 -99.9 -999.9 -9.9 -9.999 -99.9 -99.99 -9.99
2019/12/13 00:24 PST  -99.99 -99.99    2  104    2 -99.9 -99.9 -999.9 -9.9 -9.999 -99.9 -99.99 -9.99
2019/12/13 00:30 PST  -99.99 -99.99    2   96    3 -99.9 -99.9 -999.9 -9.9 -9.999 -99.9 -99.99 -9.99
2019/12/13 00:36 PST  -99.99 -99.99    3  117    3 -99.9 -99.9 -999.9 -9.9 -9.999 -99.9 -99.99 -9.99
2019/12/13 00:42 PST  -99.99 -99.99    3  122    3 -99.9 -99.9 -999.9 -9.9 -9.999 -99.9 -99.99 -9.99
2019/12/13 00:48 PST  -99.99 -99.99    2  137    3 -99.9 -99.9 -999.9 -9.9 -9.999 -99.9 -99.99 -9.99
2019/12/13 00:54 PST  -99.99 -99.99    1  170    2 -99.9 -99.9 -999.9 -9.9 -9.999 -99.9 -99.99 -9.99
2019/12/13 01:00 PST  -99.99 -99.99    1  207    1 -99.9 -99.9 -999.9 -9.9 -9.999 -99.9 -99.99 -9.99
2019/12/13 01:06 PST  -99.99 -99.99    2  190    3 -99.9 -99.9 -999.9 -9.9 -9.999 -99.9 -99.99 -9.99
2019/12/13 01:12 PST  -99.99 -99.99    3  193    4 -99.9 -99.9 -999.9 -9.9 -9.999 -99.9 -99.99 -9.99
2019/12/13 01:18 PST  -99.99 -99.99    2  198    3 -99.9 -99.9 -999.9 -9.9 -9.999 -99.9 -99.99 -9.99
2019/12/13 01:24 PST  -99.99 -99.99    2  242    3 -99.9 -99.9 -999.9 -9.9 -9.999 -99.9 -99.99 -9.99
2019/12/13 01:30 PST  -99.99 -99.99    0  206    2 -99.9 -99.9 -999.9 -9.9 -9.999 -99.9 -99.99 -9.99
2019/12/13 01:36 PST  -99.99 -99.99    1  292    2 -99.9 -99.9 -999.9 -9.9 -9.999 -99.9 -99.99 -9.99
2019/12/13 01:42 PST  -99.99 -99.99    1  287    1 -99.9 -99.9 -999.9 -9.9 -9.999 -99.9 -99.99 -9.99
2019/12/13 01:48 PST  -99.99 -99.99    1  200    1 -99.9 -99.9 -999.9 -9.9 -9.999 -99.9 -99.99 -9.99
2019/12/13 01:54 PST  -99.99 -99.99    0  288    1 -99.9 -99.9 -999.9 -9.9 -9.999 -99.9 -99.99 -9.99
2019/12/13 02:00 PST  -99.99 -99.99    0  318    1 -99.9 -99.9 -999.9 -9.9 -9.999 -99.9 -99.99 -9.99
2019/12/13 02:06 PST  -99.99 -99.99    1   43    1 -99.9 -99.9 -999.9 -9.9 -9.999 -99.9 -99.99 -9.99
2019/12/13 02:12 PST  -99.99 -99.99    1   47    2 -99.9 -99.9 -999.9 -9.9 -9.999 -99.9 -99.99 -9.99
2019/12/13 02:18 PST  -99.99 -99.99    2   59    3 -99.9 -99.9 -999.9 -9.9 -9.999 -99.9 -99.99 -9.99
2019/12/13 02:24 PST  -99.99 -99.99    3   52    4 -99.9 -99.9 -999.9 -9.9 -9.999 -99.9 -99.99 -9.99
2019/12/13 02:30 PST  -99.99 -99.99    3   52    4 -99.9 -99.9 -999.9 -9.9 -9.999 -99.9 -99.99 -9.99
2019/12/13 02:36 PST  -99.99 -99.99    2   48    3 -99.9 -99.9 -999.9 -9.9 -9.999 -99.9 -99.99 -9.99
2019/12/13 02:42 PST  -99.99 -99.99    3   39    3 -99.9 -99.9 -999.9 -9.9 -9.999 -99.9 -99.99 -9.99
2019/12/13 02:48 PST  -99.99 -99.99    2   42    3 -99.9 -99.9 -999.9 -9.9 -9.999 -99.9 -99.99 -9.99
2019/12/13 02:54 PST  -99.99 -99.99    1   61    3 -99.9 -99.9 -999.9 -9.9 -9.999 -99.9 -99.99 -9.99
2019/12/13 03:00 PST  -99.99 -99.99    1   86    1 -99.9 -99.9 -999.9 -9.9 -9.999 -99.9 -99.99 -9.99
2019/12/13 03:06 PST  -99.99 -99.99    0    0    0 -99.9 -99.9 -999.9 -9.9 -9.999 -99.9 -99.99 -9.99
2019/12/13 03:12 PST  -99.99 -99.99    0   47    1 -99.9 -99.9 -999.9 -9.9 -9.999 -99.9 -99.99 -9.99
2019/12/13 03:18 PST  -99.99 -99.99    0   48    1 -99.9 -99.9 -999.9 -9.9 -9.999 -99.9 -99.99 -9.99
2019/12/13 03:24 PST  -99.99 -99.99    0    0    1 -99.9 -99.9 -999.9 -9.9 -9.999 -99.9 -99.99 -9.99
2019/12/13 03:30 PST  -99.99 -99.99    1  183    2 -99.9 -99.9 -999.9 -9.9 -9.999 -99.9 -99.99 -9.99
2019/12/13 03:36 PST  -99.99 -99.99    1  156    3 -99.9 -99.9 -999.9 -9.9 -9.999 -99.9 -99.99 -9.99
2019/12/13 03:42 PST  -99.99 -99.99    1  187    1 -99.9 -99.9 -999.9 -9.9 -9.999 -99.9 -99.99 -9.99
2019/12/13 03:48 PST  -99.99 -99.99    1  111    2 -99.9 -99.9 -999.9 -9.9 -9.999 -99.9 -99.99 -9.99
2019/12/13 03:54 PST  -99.99 -99.99    1   90    2 -99.9 -99.9 -999.9 -9.9 -9.999 -99.9 -99.99 -9.99
2019/12/13 04:00 PST  -99.99 -99.99    2  127    3 -99.9 -99.9 -999.9 -9.9 -9.999 -99.9 -99.99 -9.99
2019/12/13 04:06 PST  -99.99 -99.99    2   98    3 -99.9 -99.9 -999.9 -9.9 -9.999 -99.9 -99.99 -9.99
2019/12/13 04:12 PST  -99.99 -99.99    1  157    2 -99.9 -99.9 -999.9 -9.9 -9.999 -99.9 -99.99 -9.99
2019/12/13 04:18 PST  -99.99 -99.99    1  118    2 -99.9 -99.9 -999.9 -9.9 -9.999 -99.9 -99.99 -9.99
2019/12/13 04:24 PST  -99.99 -99.99    3   80    4 -99.9 -99.9 -999.9 -9.9 -9.999 -99.9 -99.99 -9.99
2019/12/13 04:30 PST  -99.99 -99.99    3  103    4 -99.9 -99.9 -999.9 -9.9 -9.999 -99.9 -99.99 -9.99
2019/12/13 04:36 PST  -99.99 -99.99    3  118    3 -99.9 -99.9 -999.9 -9.9 -9.999 -99.9 -99.99 -9.99
2019/12/13 04:42 PST  -99.99 -99.99    1  118    3 -99.9 -99.9 -999.9 -9.9 -9.999 -99.9 -99.99 -9.99
2019/12/13 04:48 PST  -99.99 -99.99    3  106    4 -99.9 -99.9 -999.9 -9.9 -9.999 -99.9 -99.99 -9.99
2019/12/13 04:54 PST  -99.99 -99.99    2  117    4 -99.9 -99.9 -999.9 -9.9 -9.999 -99.9 -99.99 -9.99
2019/12/13 05:00 PST  -99.99 -99.99    3  164    4 -99.9 -99.9 -999.9 -9.9 -9.999 -99.9 -99.99 -9.99
2019/12/13 05:06 PST  -99.99 -99.99    3  143    4 -99.9 -99.9 -999.9 -9.9 -9.999 -99.9 -99.99 -9.99
2019/12/13 05:12 PST  -99.99 -99.99    3   99    3 -99.9 -99.9 -999.9 -9.9 -9.999 -99.9 -99.99 -9.99
2019/12/13 05:18 PST  -99.99 -99.99    4  106    5 -99.9 -99.9 -999.9 -9.9 -9.999 -99.9 -99.99 -9.99
2019/12/13 05:24 PST  -99.99 -99.99    3  111    4 -99.9 -99.9 -999.9 -9.9 -9.999 -99.9 -99.99 -9.99
2019/12/13 05:30 PST  -99.99 -99.99    2   91    4 -99.9 -99.9 -999.9 -9.9 -9.999 -99.9 -99.99 -9.99
2019/12/13 05:36 PST  -99.99 -99.99    4  104    5 -99.9 -99.9 -999.9 -9.9 -9.999 -99.9 -99.99 -9.99
2019/12/13 05:42 PST  -99.99 -99.99    4  113    5 -99.9 -99.9 -999.9 -9.9 -9.999 -99.9 -99.99 -9.99
2019/12/13 05:48 PST  -99.99 -99.99    3  108    4 -99.9 -99.9 -999.9 -9.9 -9.999 -99.9 -99.99 -9.99
2019/12/13 05:54 PST  -99.99 -99.99    3   91    4 -99.9 -99.9 -999.9 -9.9 -9.999 -99.9 -99.99 -9.99
2019/12/13 06:00 PST  -99.99 -99.99    3   97    4 -99.9 -99.9 -999.9 -9.9 -9.999 -99.9 -99.99 -9.99
2019/12/13 06:06 PST  -99.99 -99.99    3  117    4 -99.9 -99.9 -999.9 -9.9 -9.999 -99.9 -99.99 -9.99
2019/12/13 06:12 PST  -99.99 -99.99    2   48    4 -99.9 -99.9 -999.9 -9.9 -9.999 -99.9 -99.99 -9.99
2019/12/13 06:18 PST  -99.99 -99.99    3   96    4 -99.9 -99.9 -999.9 -9.9 -9.999 -99.9 -99.99 -9.99
2019/12/13 06:24 PST  -99.99 -99.99    3   88    4 -99.9 -99.9 -999.9 -9.9 -9.999 -99.9 -99.99 -9.99
2019/12/13 06:30 PST  -99.99 -99.99    2   96    4 -99.9 -99.9 -999.9 -9.9 -9.999 -99.9 -99.99 -9.99
2019/12/13 06:36 PST  -99.99 -99.99    2   68    3 -99.9 -99.9 -999.9 -9.9 -9.999 -99.9 -99.99 -9.99
2019/12/13 06:42 PST  -99.99 -99.99    3   43    4 -99.9 -99.9 -999.9 -9.9 -9.999 -99.9 -99.99 -9.99
2019/12/13 06:48 PST  -99.99 -99.99    2   52    4 -99.9 -99.9 -999.9 -9.9 -9.999 -99.9 -99.99 -9.99
2019/12/13 06:54 PST  -99.99 -99.99    2   43    3 -99.9 -99.9 -999.9 -9.9 -9.999 -99.9 -99.99 -9.99
2019/12/13 07:00 PST  -99.99 -99.99    2   34    3 -99.9 -99.9 -999.9 -9.9 -9.999 -99.9 -99.99 -9.99
2019/12/13 07:06 PST  -99.99 -99.99    2   54    3 -99.9 -99.9 -999.9 -9.9 -9.999 -99.9 -99.99 -9.99
2019/12/13 07:12 PST  -99.99 -99.99    1   64    3 -99.9 -99.9 -999.9 -9.9 -9.999 -99.9 -99.99 -9.99
2019/12/13 07:18 PST  -99.99 -99.99    3   47    3 -99.9 -99.9 -999.9 -9.9 -9.999 -99.9 -99.99 -9.99
2019/12/13 07:24 PST  -99.99 -99.99    2   75    3 -99.9 -99.9 -999.9 -9.9 -9.999 -99.9 -99.99 -9.99
2019/12/13 07:30 PST  -99.99 -99.99    2  100    2 -99.9 -99.9 -999.9 -9.9 -9.999 -99.9 -99.99 -9.99
2019/12/13 07:36 PST  -99.99 -99.99    3  124    3 -99.9 -99.9 -999.9 -9.9 -9.999 -99.9 -99.99 -9.99
2019/12/13 07:42 PST  -99.99 -99.99    2  102    3 -99.9 -99.9 -999.9 -9.9 -9.999 -99.9 -99.99 -9.99
2019/12/13 07:48 PST  -99.99 -99.99    2   93    3 -99.9 -99.9 -999.9 -9.9 -9.999 -99.9 -99.99 -9.99
2019/12/13 07:54 PST  -99.99 -99.99    2  130    3 -99.9 -99.9 -999.9 -9.9 -9.999 -99.9 -99.99 -9.99
2019/12/13 08:00 PST  -99.99 -99.99    3  136    4 -99.9 -99.9 -999.9 -9.9 -9.999 -99.9 -99.99 -9.99
2019/12/13 08:06 PST  -99.99 -99.99    3  147    4 -99.9 -99.9 -999.9 -9.9 -9.999 -99.9 -99.99 -9.99
2019/12/13 08:12 PST  -99.99 -99.99    3  158    4 -99.9 -99.9 -999.9 -9.9 -9.999 -99.9 -99.99 -9.99
2019/12/13 08:18 PST  -99.99 -99.99    3  151    5 -99.9 -99.9 -999.9 -9.9 -9.999 -99.9 -99.99 -9.99
2019/12/13 08:24 PST  -99.99 -99.99    3  163    4 -99.9 -99.9 -999.9 -9.9 -9.999 -99.9 -99.99 -9.99
2019/12/13 08:30 PST  -99.99 -99.99    2  146    4 -99.9 -99.9 -999.9 -9.9 -9.999 -99.9 -99.99 -9.99
2019/12/13 08:36 PST  -99.99 -99.99    2  132    3 -99.9 -99.9 -999.9 -9.9 -9.999 -99.9 -99.99 -9.99
2019/12/13 08:42 PST  -99.99 -99.99    3  130    4 -99.9 -99.9 -999.9 -9.9 -9.999 -99.9 -99.99 -9.99
2019/12/13 08:48 PST  -99.99 -99.99    2  182    3 -99.9 -99.9 -999.9 -9.9 -9.999 -99.9 -99.99 -9.99
2019/12/13 08:54 PST  -99.99 -99.99    0   69    2 -99.9 -99.9 -999.9 -9.9 -9.999 -99.9 -99.99 -9.99
2019/12/13 09:00 PST  -99.99 -99.99    1  154    1 -99.9 -99.9 -999.9 -9.9 -9.999 -99.9 -99.99 -9.99
2019/12/13 09:06 PST  -99.99 -99.99    1  149    2 -99.9 -99.9 -999.9 -9.9 -9.999 -99.9 -99.99 -9.99
2019/12/13 09:12 PST  -99.99 -99.99    0   93    1 -99.9 -99.9 -999.9 -9.9 -9.999 -99.9 -99.99 -9.99
2019/12/13 09:18 PST  -99.99 -99.99    1   72    2 -99.9 -99.9 -999.9 -9.9 -9.999 -99.9 -99.99 -9.99
2019/12/13 09:24 PST  -99.99 -99.99    0   83    1 -99.9 -99.9 -999.9 -9.9 -9.999 -99.9 -99.99 -9.99
2019/12/13 09:30 PST  -99.99 -99.99    0  153    2 -99.9 -99.9 -999.9 -9.9 -9.999 -99.9 -99.99 -9.99
2019/12/13 09:36 PST  -99.99 -99.99    0  233    0 -99.9 -99.9 -999.9 -9.9 -9.999 -99.9 -99.99 -9.99
2019/12/13 09:42 PST  -99.99 -99.99    1  231    2 -99.9 -99.9 -999.9 -9.9 -9.999 -99.9 -99.99 -9.99
2019/12/13 09:48 PST  -99.99 -99.99    3  201    4 -99.9 -99.9 -999.9 -9.9 -9.999 -99.9 -99.99 -9.99
2019/12/13 09:54 PST  -99.99 -99.99    4  186    5 -99.9 -99.9 -999.9 -9.9 -9.999 -99.9 -99.99 -9.99
2019/12/13 10:00 PST  -99.99 -99.99    3  207    4 -99.9 -99.9 -999.9 -9.9 -9.999 -99.9 -99.99 -9.99
2019/12/13 10:06 PST  -99.99 -99.99    1  143    4 -99.9 -99.9 -999.9 -9.9 -9.999 -99.9 -99.99 -9.99
2019/12/13 10:12 PST  -99.99 -99.99    2  200    3 -99.9 -99.9 -999.9 -9.9 -9.999 -99.9 -99.99 -9.99
2019/12/13 10:18 PST  -99.99 -99.99    3  194    4 -99.9 -99.9 -999.9 -9.9 -9.999 -99.9 -99.99 -9.99
2019/12/13 10:24 PST  -99.99 -99.99    4  195    5 -99.9 -99.9 -999.9 -9.9 -9.999 -99.9 -99.99 -9.99
2019/12/13 10:30 PST  -99.99 -99.99    3  200    5 -99.9 -99.9 -999.9 -9.9 -9.999 -99.9 -99.99 -9.99
2019/12/13 10:36 PST  -99.99 -99.99    3  201    4 -99.9 -99.9 -999.9 -9.9 -9.999 -99.9 -99.99 -9.99
2019/12/13 10:42 PST  -99.99 -99.99    2  205    3 -99.9 -99.9 -999.9 -9.9 -9.999 -99.9 -99.99 -9.99
2019/12/13 10:48 PST  -99.99 -99.99    2  219    4 -99.9 -99.9 -999.9 -9.9 -9.999 -99.9 -99.99 -9.99
2019/12/13 10:54 PST  -99.99 -99.99    1  220    2 -99.9 -99.9 -999.9 -9.9 -9.999 -99.9 -99.99 -9.99
2019/12/13 11:00 PST  -99.99 -99.99    3  194    3 -99.9 -99.9 -999.9 -9.9 -9.999 -99.9 -99.99 -9.99
2019/12/13 11:06 PST  -99.99 -99.99    3  184    5 -99.9 -99.9 -999.9 -9.9 -9.999 -99.9 -99.99 -9.99
2019/12/13 11:12 PST  -99.99 -99.99    4  174    5 -99.9 -99.9 -999.9 -9.9 -9.999 -99.9 -99.99 -9.99
2019/12/13 11:18 PST  -99.99 -99.99    3  175    4 -99.9 -99.9 -999.9 -9.9 -9.999 -99.9 -99.99 -9.99
2019/12/13 11:24 PST  -99.99 -99.99    3  187    4 -99.9 -99.9 -999.9 -9.9 -9.999 -99.9 -99.99 -9.99
2019/12/13 11:30 PST  -99.99 -99.99    3  148    5 -99.9 -99.9 -999.9 -9.9 -9.999 -99.9 -99.99 -9.99
2019/12/13 11:36 PST  -99.99 -99.99    4  162    5 -99.9 -99.9 -999.9 -9.9 -9.999 -99.9 -99.99 -9.99
2019/12/13 11:42 PST  -99.99 -99.99    4  170    5 -99.9 -99.9 -999.9 -9.9 -9.999 -99.9 -99.99 -9.99
2019/12/13 11:48 PST  -99.99 -99.99    5  170    6 -99.9 -99.9 -999.9 -9.9 -9.999 -99.9 -99.99 -9.99
2019/12/13 11:54 PST  -99.99 -99.99    5  173    6 -99.9 -99.9 -999.9 -9.9 -9.999 -99.9 -99.99 -9.99
2019/12/13 12:00 PST  -99.99 -99.99    4  165    6 -99.9 -99.9 -999.9 -9.9 -9.999 -99.9 -99.99 -9.99
2019/12/13 12:06 PST  -99.99 -99.99    4  155    6 -99.9 -99.9 -999.9 -9.9 -9.999 -99.9 -99.99 -9.99
2019/12/13 12:12 PST  -99.99 -99.99    4  166    6 -99.9 -99.9 -999.9 -9.9 -9.999 -99.9 -99.99 -9.99
2019/12/13 12:18 PST  -99.99 -99.99    5  160    7 -99.9 -99.9 -999.9 -9.9 -9.999 -99.9 -99.99 -9.99
2019/12/13 12:24 PST  -99.99 -99.99    5  171    6 -99.9 -99.9 -999.9 -9.9 -9.999 -99.9 -99.99 -9.99
2019/12/13 12:30 PST  -99.99 -99.99    5  166    7 -99.9 -99.9 -999.9 -9.9 -9.999 -99.9 -99.99 -9.99
2019/12/13 12:36 PST  -99.99 -99.99    4  170    6 -99.9 -99.9 -999.9 -9.9 -9.999 -99.9 -99.99 -9.99
2019/12/13 12:42 PST  -99.99 -99.99    4  165    6 -99.9 -99.9 -999.9 -9.9 -9.999 -99.9 -99.99 -9.99
2019/12/13 12:48 PST  -99.99 -99.99    5  159    6 -99.9 -99.9 -999.9 -9.9 -9.999 -99.9 -99.99 -9.99
2019/12/13 12:54 PST  -99.99 -99.99    4  172    7 -99.9 -99.9 -999.9 -9.9 -9.999 -99.9 -99.99 -9.99
2019/12/13 13:00 PST  -99.99 -99.99    4  180    6 -99.9 -99.9 -999.9 -9.9 -9.999 -99.9 -99.99 -9.99
2019/12/13 13:06 PST  -99.99 -99.99    5  177    7 -99.9 -99.9 -999.9 -9.9 -9.999 -99.9 -99.99 -9.99
2019/12/13 13:12 PST  -99.99 -99.99    5  170    7 -99.9 -99.9 -999.9 -9.9 -9.999 -99.9 -99.99 -9.99
2019/12/13 13:18 PST  -99.99 -99.99    4  178    7 -99.9 -99.9 -999.9 -9.9 -9.999 -99.9 -99.99 -9.99
2019/12/13 13:24 PST  -99.99 -99.99    4  161    6 -99.9 -99.9 -999.9 -9.9 -9.999 -99.9 -99.99 -9.99
2019/12/13 13:30 PST  -99.99 -99.99    6  154    6 -99.9 -99.9 -999.9 -9.9 -9.999 -99.9 -99.99 -9.99
2019/12/13 13:36 PST  -99.99 -99.99    4  154    6 -99.9 -99.9 -999.9 -9.9 -9.999 -99.9 -99.99 -9.99
2019/12/13 13:42 PST  -99.99 -99.99    5  154    6 -99.9 -99.9 -999.9 -9.9 -9.999 -99.9 -99.99 -9.99
2019/12/13 13:48 PST  -99.99 -99.99    5  158    7 -99.9 -99.9 -999.9 -9.9 -9.999 -99.9 -99.99 -9.99
2019/12/13 13:54 PST  -99.99 -99.99    4  157    6 -99.9 -99.9 -999.9 -9.9 -9.999 -99.9 -99.99 -9.99
2019/12/13 14:00 PST  -99.99 -99.99    4  182    6 -99.9 -99.9 -999.9 -9.9 -9.999 -99.9 -99.99 -9.99
2019/12/13 14:06 PST  -99.99 -99.99    4  168    6 -99.9 -99.9 -999.9 -9.9 -9.999 -99.9 -99.99 -9.99
2019/12/13 14:12 PST  -99.99 -99.99    4  181    5 -99.9 -99.9 -999.9 -9.9 -9.999 -99.9 -99.99 -9.99
2019/12/13 14:18 PST  -99.99 -99.99    4  163    5 -99.9 -99.9 -999.9 -9.9 -9.999 -99.9 -99.99 -9.99
2019/12/13 14:24 PST  -99.99 -99.99    3  124    4 -99.9 -99.9 -999.9 -9.9 -9.999 -99.9 -99.99 -9.99
2019/12/13 14:30 PST  -99.99 -99.99    4  115    4 -99.9 -99.9 -999.9 -9.9 -9.999 -99.9 -99.99 -9.99
2019/12/13 14:36 PST  -99.99 -99.99    1  174    4 -99.9 -99.9 -999.9 -9.9 -9.999 -99.9 -99.99 -9.99
2019/12/13 14:42 PST  -99.99 -99.99    1  127    2 -99.9 -99.9 -999.9 -9.9 -9.999 -99.9 -99.99 -9.99
2019/12/13 14:48 PST  -99.99 -99.99    0  118    2 -99.9 -99.9 -999.9 -9.9 -9.999 -99.9 -99.99 -9.99
2019/12/13 14:54 PST  -99.99 -99.99    2  201    3 -99.9 -99.9 -999.9 -9.9 -9.999 -99.9 -99.99 -9.99
2019/12/13 15:00 PST  -99.99 -99.99    4  302    7 -99.9 -99.9 -999.9 -9.9 -9.999 -99.9 -99.99 -9.99
2019/12/13 15:06 PST  -99.99 -99.99    6  301    7 -99.9 -99.9 -999.9 -9.9 -9.999 -99.9 -99.99 -9.99
2019/12/13 15:12 PST  -99.99 -99.99    6  319    9 -99.9 -99.9 -999.9 -9.9 -9.999 -99.9 -99.99 -9.99
2019/12/13 15:18 PST  -99.99 -99.99    2  303    7 -99.9 -99.9 -999.9 -9.9 -9.999 -99.9 -99.99 -9.99
2019/12/13 15:24 PST  -99.99 -99.99    6  306    8 -99.9 -99.9 -999.9 -9.9 -9.999 -99.9 -99.99 -9.99
2019/12/13 15:30 PST  -99.99 -99.99    5  325    7 -99.9 -99.9 -999.9 -9.9 -9.999 -99.9 -99.99 -9.99
2019/12/13 15:36 PST  -99.99 -99.99    4  334    9 -99.9 -99.9 -999.9 -9.9 -9.999 -99.9 -99.99 -9.99
2019/12/13 15:42 PST  -99.99 -99.99    5  304    7 -99.9 -99.9 -999.9 -9.9 -9.999 -99.9 -99.99 -9.99
2019/12/13 15:48 PST  -99.99 -99.99    4  283    6 -99.9 -99.9 -999.9 -9.9 -9.999 -99.9 -99.99 -9.99
2019/12/13 15:54 PST  -99.99 -99.99    7  330    8 -99.9 -99.9 -999.9 -9.9 -9.999 -99.9 -99.99 -9.99
2019/12/13 16:00 PST  -99.99 -99.99    4  297    7 -99.9 -99.9 -999.9 -9.9 -9.999 -99.9 -99.99 -9.99
2019/12/13 16:06 PST  -99.99 -99.99    5  304    7 -99.9 -99.9 -999.9 -9.9 -9.999 -99.9 -99.99 -9.99
2019/12/13 16:12 PST  -99.99 -99.99    8  297    9 -99.9 -99.9 -999.9 -9.9 -9.999 -99.9 -99.99 -9.99
2019/12/13 16:18 PST  -99.99 -99.99    8  296   10 -99.9 -99.9 -999.9 -9.9 -9.999 -99.9 -99.99 -9.99
2019/12/13 16:24 PST  -99.99 -99.99    6  329    9 -99.9 -99.9 -999.9 -9.9 -9.999 -99.9 -99.99 -9.99
2019/12/13 16:30 PST  -99.99 -99.99    5  333    8 -99.9 -99.9 -999.9 -9.9 -9.999 -99.9 -99.99 -9.99
2019/12/13 16:36 PST  -99.99 -99.99    4  308    7 -99.9 -99.9 -999.9 -9.9 -9.999 -99.9 -99.99 -9.99
2019/12/13 16:42 PST  -99.99 -99.99    6  292    6 -99.9 -99.9 -999.9 -9.9 -9.999 -99.9 -99.99 -9.99
2019/12/13 16:48 PST  -99.99 -99.99    4  311    7 -99.9 -99.9 -999.9 -9.9 -9.999 -99.9 -99.99 -9.99
2019/12/13 16:54 PST  -99.99 -99.99    5  304    8 -99.9 -99.9 -999.9 -9.9 -9.999 -99.9 -99.99 -9.99
2019/12/13 17:00 PST  -99.99 -99.99    4  295    7 -99.9 -99.9 -999.9 -9.9 -9.999 -99.9 -99.99 -9.99
2019/12/13 17:06 PST  -99.99 -99.99    4  291    6 -99.9 -99.9 -999.9 -9.9 -9.999 -99.9 -99.99 -9.99
2019/12/13 17:12 PST  -99.99 -99.99    5  300    9 -99.9 -99.9 -999.9 -9.9 -9.999 -99.9 -99.99 -9.99
2019/12/13 17:18 PST  -99.99 -99.99    4  300    8 -99.9 -99.9 -999.9 -9.9 -9.999 -99.9 -99.99 -9.99
2019/12/13 17:24 PST  -99.99 -99.99    5  297    7 -99.9 -99.9 -999.9 -9.9 -9.999 -99.9 -99.99 -9.99
2019/12/13 17:30 PST  -99.99 -99.99    4  281    6 -99.9 -99.9 -999.9 -9.9 -9.999 -99.9 -99.99 -9.99
2019/12/13 17:36 PST  -99.99 -99.99    3  301    4 -99.9 -99.9 -999.9 -9.9 -9.999 -99.9 -99.99 -9.99
2019/12/13 17:42 PST  -99.99 -99.99    1  355    4 -99.9 -99.9 -999.9 -9.9 -9.999 -99.9 -99.99 -9.99
2019/12/13 17:48 PST  -99.99 -99.99    0  325    3 -99.9 -99.9 -999.9 -9.9 -9.999 -99.9 -99.99 -9.99
2019/12/13 17:54 PST  -99.99 -99.99    0    0    1 -99.9 -99.9 -999.9 -9.9 -9.999 -99.9 -99.99 -9.99
2019/12/13 18:00 PST  -99.99 -99.99    0    0    0 -99.9 -99.9 -999.9 -9.9 -9.999 -99.9 -99.99 -9.99
2019/12/13 18:06 PST  -99.99 -99.99    0  207    1 -99.9 -99.9 -999.9 -9.9 -9.999 -99.9 -99.99 -9.99
2019/12/13 18:12 PST  -99.99 -99.99    0  236    1 -99.9 -99.9 -999.9 -9.9 -9.999 -99.9 -99.99 -9.99
2019/12/13 18:18 PST  -99.99 -99.99    2  285    2 -99.9 -99.9 -999.9 -9.9 -9.999 -99.9 -99.99 -9.99
2019/12/13 18:24 PST  -99.99 -99.99    4  286    4 -99.9 -99.9 -999.9 -9.9 -9.999 -99.9 -99.99 -9.99
2019/12/13 18:30 PST  -99.99 -99.99    2  291    4 -99.9 -99.9 -999.9 -9.9 -9.999 -99.9 -99.99 -9.99
2019/12/13 18:36 PST  -99.99 -99.99    3  299    3 -99.9 -99.9 -999.9 -9.9 -9.999 -99.9 -99.99 -9.99
2019/12/13 18:42 PST  -99.99 -99.99    1  325    3 -99.9 -99.9 -999.9 -9.9 -9.999 -99.9 -99.99 -9.99
2019/12/13 18:48 PST  -99.99 -99.99    1  313    2 -99.9 -99.9 -999.9 -9.9 -9.999 -99.9 -99.99 -9.99
2019/12/13 18:54 PST  -99.99 -99.99    0  300    2 -99.9 -99.9 -999.9 -9.9 -9.999 -99.9 -99.99 -9.99
2019/12/13 19:00 PST  -99.99 -99.99    0  342    1 -99.9 -99.9 -999.9 -9.9 -9.999 -99.9 -99.99 -9.99
2019/12/13 19:06 PST  -99.99 -99.99    0   44    1 -99.9 -99.9 -999.9 -9.9 -9.999 -99.9 -99.99 -9.99
2019/12/13 19:12 PST  -99.99 -99.99    0  328    1 -99.9 -99.9 -999.9 -9.9 -9.999 -99.9 -99.99 -9.99
2019/12/13 19:18 PST  -99.99 -99.99    0  329    1 -99.9 -99.9 -999.9 -9.9 -9.999 -99.9 -99.99 -9.99
2019/12/13 19:24 PST  -99.99 -99.99    0  332    1 -99.9 -99.9 -999.9 -9.9 -9.999 -99.9 -99.99 -9.99
2019/12/13 19:30 PST  -99.99 -99.99    1  329    1 -99.9 -99.9 -999.9 -9.9 -9.999 -99.9 -99.99 -9.99
2019/12/13 19:36 PST  -99.99 -99.99    0  347    1 -99.9 -99.9 -999.9 -9.9 -9.999 -99.9 -99.99 -9.99
2019/12/13 19:42 PST  -99.99 -99.99    1  286    1 -99.9 -99.9 -999.9 -9.9 -9.999 -99.9 -99.99 -9.99
2019/12/13 19:48 PST  -99.99 -99.99    0    0    1 -99.9 -99.9 -999.9 -9.9 -9.999 -99.9 -99.99 -9.99
2019/12/13 19:54 PST  -99.99 -99.99    0   90    1 -99.9 -99.9 -999.9 -9.9 -9.999 -99.9 -99.99 -9.99
2019/12/13 20:00 PST  -99.99 -99.99    1   63    2 -99.9 -99.9 -999.9 -9.9 -9.999 -99.9 -99.99 -9.99
2019/12/13 20:06 PST  -99.99 -99.99    0   63    2 -99.9 -99.9 -999.9 -9.9 -9.999 -99.9 -99.99 -9.99
2019/12/13 20:12 PST  -99.99 -99.99    3  105    3 -99.9 -99.9 -999.9 -9.9 -9.999 -99.9 -99.99 -9.99
2019/12/13 20:18 PST  -99.99 -99.99    4   98    4 -99.9 -99.9 -999.9 -9.9 -9.999 -99.9 -99.99 -9.99
2019/12/13 20:24 PST  -99.99 -99.99    3   92    4 -99.9 -99.9 -999.9 -9.9 -9.999 -99.9 -99.99 -9.99
2019/12/13 20:30 PST  -99.99 -99.99    3   76    3 -99.9 -99.9 -999.9 -9.9 -9.999 -99.9 -99.99 -9.99
2019/12/13 20:36 PST  -99.99 -99.99    3   69    4 -99.9 -99.9 -999.9 -9.9 -9.999 -99.9 -99.99 -9.99
2019/12/13 20:42 PST  -99.99 -99.99    3   91    4 -99.9 -99.9 -999.9 -9.9 -9.999 -99.9 -99.99 -9.99
2019/12/13 20:48 PST  -99.99 -99.99    3  102    4 -99.9 -99.9 -999.9 -9.9 -9.999 -99.9 -99.99 -9.99
2019/12/13 20:54 PST  -99.99 -99.99    2  121    3 -99.9 -99.9 -999.9 -9.9 -9.999 -99.9 -99.99 -9.99
2019/12/13 21:00 PST  -99.99 -99.99    2  124    4 -99.9 -99.9 -999.9 -9.9 -9.999 -99.9 -99.99 -9.99
2019/12/13 21:06 PST  -99.99 -99.99    3  126    4 -99.9 -99.9 -999.9 -9.9 -9.999 -99.9 -99.99 -9.99
2019/12/13 21:12 PST  -99.99 -99.99    3  138    4 -99.9 -99.9 -999.9 -9.9 -9.999 -99.9 -99.99 -9.99
2019/12/13 21:18 PST  -99.99 -99.99    3  147    4 -99.9 -99.9 -999.9 -9.9 -9.999 -99.9 -99.99 -9.99
2019/12/13 21:24 PST  -99.99 -99.99    4  146    4 -99.9 -99.9 -999.9 -9.9 -9.999 -99.9 -99.99 -9.99
2019/12/13 21:30 PST  -99.99 -99.99    4  138    5 -99.9 -99.9 -999.9 -9.9 -9.999 -99.9 -99.99 -9.99
2019/12/13 21:36 PST  -99.99 -99.99    3  133    4 -99.9 -99.9 -999.9 -9.9 -9.999 -99.9 -99.99 -9.99
2019/12/13 21:42 PST  -99.99 -99.99    3  130    4 -99.9 -99.9 -999.9 -9.9 -9.999 -99.9 -99.99 -9.99
2019/12/13 21:48 PST  -99.99 -99.99    4  116    4 -99.9 -99.9 -999.9 -9.9 -9.999 -99.9 -99.99 -9.99
2019/12/13 21:54 PST  -99.99 -99.99    2   98    3 -99.9 -99.9 -999.9 -9.9 -9.999 -99.9 -99.99 -9.99
2019/12/13 22:00 PST  -99.99 -99.99    2  110    3 -99.9 -99.9 -999.9 -9.9 -9.999 -99.9 -99.99 -9.99
2019/12/13 22:06 PST  -99.99 -99.99    1  124    3 -99.9 -99.9 -999.9 -9.9 -9.999 -99.9 -99.99 -9.99
2019/12/13 22:12 PST  -99.99 -99.99    1  149    1 -99.9 -99.9 -999.9 -9.9 -9.999 -99.9 -99.99 -9.99
2019/12/13 22:18 PST  -99.99 -99.99    1  167    2 -99.9 -99.9 -999.9 -9.9 -9.999 -99.9 -99.99 -9.99
2019/12/13 22:24 PST  -99.99 -99.99    2  168    3 -99.9 -99.9 -999.9 -9.9 -9.999 -99.9 -99.99 -9.99
2019/12/13 22:30 PST  -99.99 -99.99    2  138    3 -99.9 -99.9 -999.9 -9.9 -9.999 -99.9 -99.99 -9.99
2019/12/13 22:36 PST  -99.99 -99.99    1  157    3 -99.9 -99.9 -999.9 -9.9 -9.999 -99.9 -99.99 -9.99
2019/12/13 22:42 PST  -99.99 -99.99    3  201    3 -99.9 -99.9 -999.9 -9.9 -9.999 -99.9 -99.99 -9.99
2019/12/13 22:48 PST  -99.99 -99.99    3  253    4 -99.9 -99.9 -999.9 -9.9 -9.999 -99.9 -99.99 -9.99
2019/12/13 22:54 PST  -99.99 -99.99    3  314    3 -99.9 -99.9 -999.9 -9.9 -9.999 -99.9 -99.99 -9.99
2019/12/13 23:00 PST  -99.99 -99.99    1  342    3 -99.9 -99.9 -999.9 -9.9 -9.999 -99.9 -99.99 -9.99
2019/12/13 23:06 PST  -99.99 -99.99    0  337    1 -99.9 -99.9 -999.9 -9.9 -9.999 -99.9 -99.99 -9.99
2019/12/13 23:12 PST  -99.99 -99.99    0    0    0 -99.9 -99.9 -999.9 -9.9 -9.999 -99.9 -99.99 -9.99
2019/12/13 23:18 PST  -99.99 -99.99    0    0    0 -99.9 -99.9 -999.9 -9.9 -9.999 -99.9 -99.99 -9.99
2019/12/13 23:24 PST  -99.99 -99.99    1  231    1 -99.9 -99.9 -999.9 -9.9 -9.999 -99.9 -99.99 -9.99
2019/12/13 23:30 PST  -99.99 -99.99    3  237    3 -99.9 -99.9 -999.9 -9.9 -9.999 -99.9 -99.99 -9.99
2019/12/13 23:36 PST  -99.99 -99.99    2  238    3 -99.9 -99.9 -999.9 -9.9 -9.999 -99.9 -99.99 -9.99
2019/12/13 23:42 PST  -99.99 -99.99    1  208    2 -99.9 -99.9 -999.9 -9.9 -9.999 -99.9 -99.99 -9.99
2019/12/13 23:48 PST  -99.99 -99.99    2  186    2 -99.9 -99.9 -999.9 -9.9 -9.999 -99.9 -99.99 -9.99
2019/12/13 23:54 PST  -99.99 -99.99    2  187    3 -99.9 -99.9 -999.9 -9.9 -9.999 -99.9 -99.99 -9.99
2019/12/14 00:00 PST  -99.99 -99.99    3  165    4 -99.9 -99.9 -999.9 -9.9 -9.999 -99.9 -99.99 -9.99
2019/12/14 00:06 PST  -99.99 -99.99    3  164    3 -99.9 -99.9 -999.9 -9.9 -9.999 -99.9 -99.99 -9.99
2019/12/14 00:12 PST  -99.99 -99.99    2  171    4 -99.9 -99.9 -999.9 -9.9 -9.999 -99.9 -99.99 -9.99
2019/12/14 00:18 PST  -99.99 -99.99    2  170    3 -99.9 -99.9 -999.9 -9.9 -9.999 -99.9 -99.99 -9.99
2019/12/14 00:24 PST  -99.99 -99.99    1  109    2 -99.9 -99.9 -999.9 -9.9 -9.999 -99.9 -99.99 -9.99
2019/12/14 00:30 PST  -99.99 -99.99    3  111    3 -99.9 -99.9 -999.9 -9.9 -9.999 -99.9 -99.99 -9.99
2019/12/14 00:36 PST  -99.99 -99.99    2  121    3 -99.9 -99.9 -999.9 -9.9 -9.999 -99.9 -99.99 -9.99
2019/12/14 00:42 PST  -99.99 -99.99    2  116    4 -99.9 -99.9 -999.9 -9.9 -9.999 -99.9 -99.99 -9.99
2019/12/14 00:48 PST  -99.99 -99.99    2  116    3 -99.9 -99.9 -999.9 -9.9 -9.999 -99.9 -99.99 -9.99
2019/12/14 00:54 PST  -99.99 -99.99    2  134    2 -99.9 -99.9 -999.9 -9.9 -9.999 -99.9 -99.99 -9.99
2019/12/14 01:00 PST  -99.99 -99.99    1  130    2 -99.9 -99.9 -999.9 -9.9 -9.999 -99.9 -99.99 -9.99
2019/12/14 01:06 PST  -99.99 -99.99    1  159    2 -99.9 -99.9 -999.9 -9.9 -9.999 -99.9 -99.99 -9.99
2019/12/14 01:12 PST  -99.99 -99.99    1  166    2 -99.9 -99.9 -999.9 -9.9 -9.999 -99.9 -99.99 -9.99
2019/12/14 01:18 PST  -99.99 -99.99    3  166    4 -99.9 -99.9 -999.9 -9.9 -9.999 -99.9 -99.99 -9.99
2019/12/14 01:24 PST  -99.99 -99.99    4  184    5 -99.9 -99.9 -999.9 -9.9 -9.999 -99.9 -99.99 -9.99
2019/12/14 01:30 PST  -99.99 -99.99    2  196    5 -99.9 -99.9 -999.9 -9.9 -9.999 -99.9 -99.99 -9.99
2019/12/14 01:36 PST  -99.99 -99.99    3  219    4 -99.9 -99.9 -999.9 -9.9 -9.999 -99.9 -99.99 -9.99
2019/12/14 01:42 PST  -99.99 -99.99    2  228    5 -99.9 -99.9 -999.9 -9.9 -9.999 -99.9 -99.99 -9.99
2019/12/14 01:48 PST  -99.99 -99.99    2  258    4 -99.9 -99.9 -999.9 -9.9 -9.999 -99.9 -99.99 -9.99
2019/12/14 01:54 PST  -99.99 -99.99    2  247    4 -99.9 -99.9 -999.9 -9.9 -9.999 -99.9 -99.99 -9.99
2019/12/14 02:00 PST  -99.99 -99.99    3  236    4 -99.9 -99.9 -999.9 -9.9 -9.999 -99.9 -99.99 -9.99